[{"header": {"dx": 0.06612293990616946, "dy": 0.0552356325346848, "nx": 98, "ny": 59, "la1": 35.046912555036876, "la2": 31.78801023549047, "lo1": -121.43107172385933, "lo2": -114.95102361305473, "refTime": "2026041300", "parameterCategory": 1, "parameterNumber": 2}, "data": [13.86, 13.83, 13.83, 14.19, 14.19, 13.62, 13.62, 13.82, 13.75, 14.18, 13.05, 11.54, 11.56, 10.7, 9.85, 10.28, 10.96, 9.85, 10.41, 10.84, 10.84, 10.88, 10.18, 10.18, 11.11, 11.54, 11.55, 11.2, 10.99, 10.6, 11.55, 11.87, 11.71, 11.44, 11.13, 11.18, 11.0, 10.79, 10.0, 9.77, 10.32, 10.5, 10.88, 12.58, 13.96, 14.99, 17.37, 19.22, 17.59, 15.06, 11.93, 11.68, 11.17, 11.06, 10.65, 10.65, 11.79, 11.79, 12.22, 12.62, 13.02, 12.65, 13.64, 13.59, 14.16, 14.3, 14.71, 14.71, 14.71, 14.71, 15.52, 15.77, 14.79, 14.39, 13.99, 13.35, 14.17, 14.13, 14.87, 14.55, 13.76, 13.39, 12.96, 12.52, 12.07, 10.73, 10.28, 10.28, 10.73, 12.52, 12.3, 10.91, 11.85, 12.51, 13.23, 12.21, 10.12, 9.64, 13.86, 13.86, 13.83, 13.83, 14.19, 14.06, 14.03, 13.82, 14.18, 14.18, 12.82, 12.85, 11.13, 10.28, 11.28, 10.84, 10.08, 11.28, 10.84, 9.85, 11.71, 10.88, 10.88, 11.45, 10.08, 11.03, 11.14, 10.2, 10.6, 10.99, 12.39, 13.84, 13.02, 10.8, 10.78, 10.24, 9.34, 8.56, 7.42, 8.6, 10.55, 11.92, 12.58, 14.07, 16.47, 18.33, 19.59, 17.22, 13.95, 10.58, 10.75, 10.31, 10.65, 10.37, 10.37, 11.06, 11.47, 12.57, 12.62, 13.02, 13.27, 13.25, 13.25, 13.19, 13.75, 14.16, 14.16, 13.75, 14.16, 14.79, 15.19, 15.8, 15.77, 14.56, 13.75, 13.64, 14.42, 14.13, 14.87, 14.55, 13.76, 13.39, 12.96, 12.52, 12.07, 10.73, 10.28, 10.28, 10.73, 12.52, 12.3, 10.91, 11.85, 12.51, 13.23, 12.21, 10.12, 9.64, 13.86, 13.86, 13.83, 13.83, 14.19, 14.62, 14.47, 14.47, 14.86, 14.18, 11.96, 11.54, 11.56, 11.13, 10.35, 10.56, 11.0, 11.44, 10.96, 11.71, 10.35, 10.84, 10.46, 11.85, 12.25, 10.99, 10.99, 10.17, 9.6, 9.97, 11.35, 12.22, 11.06, 11.2, 9.67, 10.32, 9.76, 9.39, 9.46, 10.75, 12.14, 13.86, 16.09, 17.81, 19.35, 18.48, 16.59, 12.8, 10.12, 9.97, 10.18, 10.18, 10.75, 10.75, 10.43, 11.06, 11.88, 12.98, 13.65, 13.27, 13.25, 13.25, 12.86, 13.19, 13.59, 13.19, 13.59, 14.03, 14.64, 15.24, 14.85, 15.19, 15.77, 15.71, 13.91, 14.15, 14.84, 14.87, 14.59, 14.66, 13.84, 13.41, 12.52, 12.07, 10.73, 10.28, 10.28, 10.28, 11.62, 12.86, 12.74, 12.98, 13.34, 13.36, 12.3, 10.62, 9.64, 10.03, 13.86, 13.86, 14.28, 13.83, 14.19, 14.62, 14.9, 14.9, 14.86, 13.99, 11.96, 11.54, 11.56, 10.78, 10.96, 11.0, 11.57, 12.02, 11.57, 11.44, 10.56, 10.65, 11.28, 10.92, 11.14, 11.85, 10.6, 10.4, 9.8, 9.48, 8.24, 7.95, 8.18, 10.6, 9.8, 9.27, 10.73, 11.84, 11.46, 12.72, 15.07, 17.16, 16.88, 15.46, 14.71, 12.8, 10.58, 10.12, 9.97, 9.53, 10.04, 10.31, 10.31, 10.01, 11.17, 11.17, 12.3, 13.02, 13.27, 13.64, 13.25, 12.86, 12.86, 13.19, 12.79, 13.42, 13.76, 13.49, 14.13, 14.99, 15.86, 15.03, 15.52, 16.25, 15.51, 14.53, 14.66, 15.18, 15.56, 14.28, 13.41, 12.96, 12.07, 10.73, 10.73, 10.73, 10.73, 11.18, 12.52, 14.11, 15.05, 13.86, 12.96, 12.08, 10.25, 9.64, 10.03, 10.79, 13.86, 13.86, 14.28, 14.28, 14.27, 14.62, 15.07, 14.9, 14.86, 13.99, 12.2, 11.33, 11.4, 10.91, 10.52, 11.57, 11.58, 12.02, 12.02, 12.02, 12.42, 11.09, 10.32, 11.61, 10.38, 10.8, 10.87, 10.41, 9.77, 7.59, 6.44, 6.2, 7.14, 8.53, 10.43, 11.44, 12.0, 13.15, 14.65, 15.91, 14.47, 13.03, 11.3, 11.07, 11.42, 10.92, 10.75, 9.97, 9.97, 10.43, 10.43, 10.43, 10.43, 10.43, 11.6, 11.95, 12.65, 13.27, 13.64, 13.25, 12.65, 12.65, 12.79, 12.23, 12.73, 12.48, 12.78, 12.75, 13.74, 14.82, 16.12, 16.1, 15.05, 16.75, 16.86, 14.53, 13.83, 13.86, 14.75, 13.86, 12.52, 12.07, 11.18, 10.28, 11.18, 11.18, 12.07, 12.96, 13.41, 14.55, 13.86, 12.52, 11.99, 10.41, 9.77, 10.48, 11.16, 11.81, 13.86, 13.86, 14.3, 14.27, 14.27, 14.62, 15.07, 15.07, 14.86, 13.99, 11.76, 11.33, 10.96, 10.68, 11.12, 11.13, 11.62, 12.07, 12.07, 12.52, 12.45, 12.02, 12.58, 11.92, 11.5, 10.41, 9.62, 9.96, 8.01, 7.73, 6.4, 6.4, 7.27, 10.04, 11.58, 11.04, 11.42, 12.58, 16.19, 15.25, 11.38, 9.16, 10.12, 11.3, 11.3, 10.52, 11.38, 11.53, 11.2, 10.54, 10.25, 10.54, 10.54, 10.87, 12.05, 12.65, 12.65, 13.25, 13.25, 12.86, 12.27, 12.23, 12.03, 11.68, 10.97, 11.17, 11.77, 12.33, 13.7, 15.53, 16.48, 16.72, 16.72, 16.45, 16.16, 16.3, 15.08, 13.86, 12.52, 12.52, 11.18, 11.18, 10.68, 10.62, 11.18, 11.62, 12.96, 14.3, 14.99, 13.88, 12.72, 11.33, 10.23, 9.36, 10.48, 11.53, 12.2, 11.97, 13.86, 13.86, 13.86, 14.27, 14.72, 15.17, 15.07, 15.05, 15.05, 13.28, 11.49, 11.33, 10.52, 10.23, 11.62, 11.18, 12.07, 12.52, 12.52, 12.52, 12.96, 14.3, 14.68, 14.56, 13.56, 11.9, 11.87, 9.16, 8.59, 7.9, 7.59, 6.64, 7.56, 8.72, 9.97, 11.97, 11.9, 11.88, 11.99, 10.3, 6.4, 6.67, 8.87, 9.6, 9.89, 9.62, 11.7, 12.19, 12.16, 11.1, 10.77, 10.25, 10.99, 11.34, 12.41, 12.65, 12.65, 12.62, 12.79, 12.79, 12.23, 11.26, 11.44, 9.81, 8.55, 10.57, 12.13, 12.72, 13.46, 15.58, 16.87, 16.69, 17.04, 17.99, 17.26, 16.03, 15.67, 14.72, 13.41, 12.96, 11.18, 12.07, 11.4, 11.03, 11.62, 12.07, 14.3, 14.84, 12.81, 11.37, 9.77, 9.69, 9.64, 10.48, 11.58, 12.2, 12.2, 11.58, 13.41, 13.86, 14.3, 14.72, 15.17, 15.17, 15.17, 15.05, 14.6, 12.83, 11.05, 11.02, 10.23, 11.11, 12.52, 11.18, 12.07, 12.96, 12.96, 12.96, 13.41, 13.41, 13.41, 15.57, 14.84, 13.19, 13.03, 12.22, 10.43, 10.3, 9.42, 8.53, 8.85, 9.77, 9.3, 10.99, 11.8, 10.43, 11.03, 9.08, 7.78, 7.13, 10.05, 11.16, 10.3, 9.31, 10.58, 12.02, 12.46, 12.87, 10.47, 11.07, 11.44, 11.76, 12.03, 12.62, 12.23, 12.15, 12.15, 11.75, 10.63, 10.85, 8.43, 7.57, 7.95, 10.31, 12.96, 13.46, 13.88, 15.09, 16.55, 17.64, 17.89, 18.17, 18.11, 16.6, 15.9, 14.71, 13.86, 12.58, 5.4, 10.04, 8.22, 9.67, 11.71, 12.04, 12.03, 11.44, 10.02, 9.64, 8.93, 9.62, 10.79, 11.42, 12.6, 12.58, 12.39, 11.31, 13.86, 14.3, 14.3, 14.75, 15.17, 15.17, 15.17, 15.16, 14.16, 12.39, 11.14, 10.69, 12.96, 12.88, 12.45, 12.45, 12.96, 12.96, 13.41, 12.96, 13.41, 13.41, 13.41, 14.19, 12.14, 11.03, 9.13, 11.99, 13.42, 12.39, 12.39, 12.16, 10.75, 10.82, 10.04, 10.4, 10.32, 10.32, 9.63, 8.93, 7.82, 7.93, 9.16, 8.3, 8.53, 8.69, 10.18, 11.8, 12.46, 12.8, 12.11, 11.57, 12.27, 12.18, 12.03, 11.99, 12.15, 11.5, 11.09, 10.55, 9.89, 8.94, 6.18, 6.63, 8.61, 11.42, 13.46, 14.88, 14.85, 16.19, 17.19, 17.51, 18.17, 17.75, 17.37, 16.01, 14.72, 13.86, 13.44, -0.0, 3.07, 3.04, 4.48, 8.22, 9.16, 9.42, 9.3, 9.64, 9.62, 9.27, 9.92, 10.28, 10.48, 12.79, 13.19, 12.99, 11.77, 10.47, 14.3, 14.3, 14.75, 14.75, 15.17, 15.17, 15.17, 15.17, 14.27, 12.48, 11.59, 12.07, 12.07, 13.86, 13.86, 13.41, 14.3, 14.68, 14.19, 12.83, 12.39, 12.83, 13.15, 13.57, 13.15, 10.6, 8.3, 9.6, 13.7, 13.57, 12.79, 13.8, 12.16, 10.47, 10.8, 10.05, 9.97, 9.16, 10.68, 9.96, 9.17, 8.54, 8.22, 8.07, 8.47, 9.17, 9.89, 10.94, 11.76, 11.58, 12.02, 12.36, 12.52, 12.94, 12.99, 12.6, 12.79, 11.77, 10.73, 9.97, 8.78, 5.78, 6.88, 7.6, 9.67, 12.17, 14.61, 14.95, 15.34, 16.03, 16.69, 16.48, 16.52, 16.52, 14.75, 13.86, 12.96, 11.87, 2.54, 3.58, 7.21, 8.43, 7.19, 8.32, 9.17, 8.85, 9.23, 9.56, 10.19, 10.15, 10.48, 10.8, 11.36, 12.74, 13.56, 12.58, 11.35, 9.48, 14.3, 14.3, 14.75, 14.75, 14.75, 15.17, 15.17, 14.72, 13.82, 12.48, 12.48, 12.96, 13.41, 13.86, 14.3, 14.3, 16.09, 15.16, 15.08, 15.82, 16.99, 16.91, 16.39, 14.13, 14.31, 11.61, 9.75, 9.75, 12.3, 13.75, 12.89, 11.26, 9.67, 10.68, 11.35, 11.53, 10.84, 10.27, 10.16, 11.35, 10.69, 10.09, 9.08, 8.93, 8.93, 8.58, 9.3, 10.04, 9.69, 10.3, 11.38, 12.33, 13.65, 13.39, 12.9, 12.9, 13.99, 13.6, 10.04, 7.54, 5.81, 5.8, 7.35, 8.0, 10.84, 13.59, 15.27, 15.22, 15.12, 15.35, 15.1, 14.13, 14.44, 14.19, 14.3, 12.79, 12.96, -0.0, 4.24, 5.85, 7.76, 9.78, 10.25, 9.7, 9.8, 10.15, 11.17, 11.42, 11.37, 11.2, 10.94, 11.79, 12.1, 13.25, 12.93, 11.69, 9.48, 8.49, 14.3, 14.3, 14.3, 14.75, 14.75, 14.75, 15.17, 14.72, 13.82, 12.93, 12.96, 13.41, 14.3, 14.3, 13.38, 12.52, 12.52, 14.3, 15.62, 16.88, 15.9, 15.45, 15.45, 15.83, 13.33, 12.66, 12.22, 8.17, 9.92, 9.97, 9.97, 10.28, 10.18, 9.16, 10.28, 10.28, 10.16, 10.92, 10.8, 11.5, 10.94, 10.94, 10.01, 9.67, 8.03, 7.13, 8.22, 8.85, 8.01, 9.48, 9.34, 10.87, 11.6, 10.58, 9.47, 10.35, 11.6, 12.51, 10.12, 4.87, 2.65, 5.6, 7.35, 8.41, 10.15, 12.85, 14.6, 14.69, 14.11, 13.66, 13.28, 13.68, 11.8, 11.72, 6.0, -7.44, -4.24, 4.24, 6.43, 7.82, 8.68, 9.94, 11.25, 10.95, 11.38, 12.77, 12.68, 12.97, 12.64, 12.4, 11.3, 11.66, 12.04, 12.72, 11.38, 9.97, 8.49, 8.21, 14.3, 14.3, 14.3, 14.75, 14.75, 14.75, 14.75, 14.3, 14.3, 13.41, 13.41, 13.86, 14.3, 14.75, 15.16, 15.17, 13.83, 12.96, 12.52, 12.96, 13.41, 12.95, 12.95, 12.95, 12.95, 12.45, 12.45, 12.38, 11.49, 10.6, 11.51, 10.89, 11.02, 10.69, 10.25, 9.83, 9.81, 10.78, 10.38, 10.4, 10.41, 10.79, 9.66, 8.73, 6.95, 6.7, 6.45, 5.99, 7.73, 8.01, 7.26, 7.93, 7.26, 5.34, 5.09, 6.53, 8.48, 12.99, 11.17, 5.55, 1.18, 4.49, 6.69, 7.12, 7.22, 8.38, 11.31, 11.88, 11.71, 13.34, 15.29, 15.49, 13.91, 11.17, 3.68, -13.41, 3.39, 6.99, 8.16, 9.16, 9.23, 10.65, 11.77, 12.87, 12.78, 13.85, 14.49, 13.85, 13.07, 13.49, 13.65, 12.04, 11.14, 10.73, 9.3, 9.17, 8.72, 8.3, 14.3, 14.3, 14.3, 14.3, 14.75, 14.75, 14.75, 14.3, 14.3, 13.86, 13.86, 14.3, 14.75, 15.2, 15.61, 16.06, 15.61, 15.17, 14.72, 14.28, 14.3, 14.3, 14.75, 14.75, 15.2, 13.84, 13.84, 13.84, 12.95, 12.05, 11.16, 11.15, 11.62, 10.24, 10.25, 9.36, 9.36, 10.12, 9.85, 9.8, 9.77, 9.77, 9.3, 8.73, 6.14, 6.42, 4.98, 5.95, 7.15, 7.44, 7.44, 6.2, 4.4, 2.82, 4.08, 5.0, 9.42, 14.19, 13.05, 6.15, 1.89, 4.62, 6.14, 6.14, 4.54, 6.14, 6.77, 7.15, 9.47, 12.2, 15.13, 18.23, 17.46, 13.89, 11.18, 7.36, 6.47, 8.25, 10.86, 11.83, 11.92, 12.84, 13.39, 13.29, 13.02, 14.85, 14.95, 14.17, 12.5, 12.8, 13.47, 11.38, 9.08, 8.53, 8.22, 8.42, 8.72, 8.59, 14.3, 14.3, 14.3, 14.3, 14.3, 14.75, 14.75, 14.75, 14.3, 14.3, 14.3, 14.3, 14.75, 15.2, 16.06, 16.5, 16.06, 16.06, 15.62, 15.62, 15.17, 15.17, 15.18, 15.2, 15.65, 15.65, 15.65, 14.75, 14.3, 13.41, 12.96, 11.18, 11.62, 10.28, 10.28, 9.83, 10.22, 9.64, 10.84, 9.33, 9.8, 10.68, 10.0, 8.38, 7.33, 5.86, 6.14, 6.95, 7.27, 7.27, 7.59, 5.7, 5.29, 3.15, 5.1, 6.64, 9.2, 11.75, 12.52, 7.59, 2.45, 4.1, 5.63, 5.31, 4.24, 4.24, 5.19, 6.4, 10.01, 14.37, 17.0, 18.6, 21.87, 17.25, 11.79, 9.92, 9.96, 12.08, 13.17, 14.37, 14.42, 14.88, 14.24, 13.48, 12.87, 14.42, 13.99, 13.23, 12.37, 12.93, 12.56, 10.47, 7.82, 7.85, 8.85, 8.3, 8.18, 8.18, 14.3, 14.3, 14.3, 14.3, 14.3, 14.3, 14.3, 14.75, 14.75, 14.3, 14.3, 14.75, 14.75, 15.2, 16.09, 16.5, 16.06, 16.5, 16.51, 16.06, 15.62, 15.62, 15.62, 15.62, 16.07, 16.07, 15.62, 15.65, 14.75, 14.3, 13.86, 13.86, 12.07, 11.18, 10.28, 9.83, 10.69, 10.56, 10.84, 10.32, 9.75, 9.6, 8.93, 7.68, 7.33, 7.33, 7.33, 7.33, 6.95, 7.21, 7.56, 7.56, 6.95, 7.33, 7.15, 8.3, 8.91, 8.93, 9.17, 7.96, 5.63, 6.16, 5.2, 3.82, 4.58, 5.4, 5.35, 8.15, 11.2, 15.25, 18.02, 19.68, 21.58, 21.63, 13.26, 11.56, 12.88, 15.27, 15.79, 15.44, 16.11, 16.06, 15.19, 14.94, 13.67, 10.84, 12.71, 13.25, 12.79, 11.57, 10.3, 8.22, 8.9, 9.2, 8.49, 8.01, 8.66, 8.66, 14.3, 14.3, 14.3, 13.86, 14.3, 14.3, 14.3, 14.75, 14.75, 14.75, 14.75, 14.75, 14.75, 15.2, 15.61, 16.06, 15.61, 16.5, 16.39, 16.41, 16.06, 16.07, 16.07, 15.62, 15.11, 15.11, 15.55, 15.56, 15.56, 16.0, 15.56, 15.56, 14.66, 12.47, 10.25, 10.73, 10.73, 10.73, 10.18, 10.18, 10.18, 7.64, 8.18, 6.91, 7.68, 7.68, 7.68, 6.95, 7.56, 8.18, 8.15, 8.54, 8.93, 8.93, 8.54, 9.04, 9.21, 8.8, 9.3, 9.88, 9.08, 6.98, 6.87, 5.95, 5.95, 4.98, 5.7, 7.59, 10.37, 14.51, 19.59, 20.27, 22.26, 19.51, 16.67, 13.59, 15.37, 16.76, 17.21, 16.87, 16.72, 16.45, 15.8, 14.99, 14.13, 11.2, 11.64, 10.82, 10.58, 10.58, 10.58, 9.27, 9.23, 8.79, 8.66, 7.93, 8.66, 8.66, 14.3, 14.3, 14.3, 13.86, 13.86, 14.3, 14.3, 14.3, 14.75, 14.75, 14.75, 14.75, 14.75, 15.17, 15.17, 14.72, 15.07, 15.95, 16.39, 15.95, 15.53, 15.38, 15.09, 14.65, 14.65, 14.97, 15.41, 15.43, 15.71, 16.15, 16.19, 16.19, 16.15, 14.4, 10.13, 11.05, 10.25, 10.2, 10.28, 10.14, 8.05, 7.68, 7.33, 7.68, 8.18, 8.55, 8.18, 8.18, 8.54, 8.93, 9.04, 9.04, 9.45, 8.93, 9.04, 9.63, 9.63, 9.2, 8.72, 8.94, 8.94, 8.49, 7.59, 6.58, 6.42, 5.72, 6.01, 7.56, 8.49, 11.16, 18.39, 20.69, 22.29, 19.81, 16.25, 15.25, 16.87, 18.05, 18.05, 17.03, 16.79, 16.71, 15.8, 13.76, 11.52, 10.47, 10.38, 9.64, 9.92, 10.99, 11.34, 10.73, 8.85, 8.29, 8.84, 9.24, 9.13, 9.13, 14.3, 14.3, 13.86, 13.86, 13.86, 13.86, 14.3, 14.3, 14.75, 14.75, 14.75, 14.75, 14.72, 14.72, 14.71, 16.04, 14.16, 15.49, 15.51, 15.07, 14.94, 15.18, 14.25, 15.25, 14.31, 16.15, 12.04, 15.69, 16.66, 14.08, 15.01, 15.18, 15.6, 15.18, 13.49, 10.29, 9.39, 9.5, 10.24, 11.18, 9.42, 8.58, 9.45, 9.2, 9.32, 8.93, 8.54, 9.04, 9.04, 9.45, 9.63, 9.63, 9.45, 9.45, 10.05, 9.6, 9.6, 9.48, 9.3, 9.3, 8.94, 8.49, 8.49, 7.4, 6.95, 6.32, 6.64, 6.73, 8.42, 10.01, 14.52, 20.4, 24.0, 22.48, 17.96, 16.66, 17.24, 17.59, 19.18, 19.77, 16.8, 15.91, 14.56, 12.86, 12.52, 11.8, 11.03, 11.12, 10.73, 10.91, 11.64, 10.65, 9.02, 7.79, 9.39, 10.31, 10.12, 10.12, 14.3, 14.3, 13.86, 13.86, 13.86, 13.86, 14.3, 14.3, 14.75, 14.75, 14.72, 14.72, 14.72, 14.71, 14.6, 14.18, 14.6, 14.16, 15.59, 14.99, 16.31, 15.04, 13.97, 15.69, 15.27, 16.05, 16.27, 14.42, 14.86, 15.12, 15.55, 15.36, 15.07, 15.49, 14.74, 12.7, 10.65, 10.24, 9.76, 9.82, 9.97, 9.21, 9.21, 9.21, 8.72, 10.05, 9.04, 9.45, 9.45, 9.04, 9.21, 9.63, 9.45, 10.05, 8.8, 9.6, 10.55, 8.68, 8.68, 9.3, 8.94, 8.15, 8.73, 7.9, 6.95, 7.27, 6.95, 7.68, 8.79, 10.43, 14.74, 20.27, 24.99, 24.99, 20.55, 17.26, 16.48, 16.05, 16.52, 19.22, 19.53, 16.85, 14.61, 13.71, 12.5, 11.53, 11.5, 11.69, 11.44, 10.53, 11.39, 10.54, 9.36, 8.72, 10.04, 11.5, 11.95, 11.95, 13.86, 14.3, 13.86, 13.86, 13.86, 13.86, 14.3, 14.3, 14.71, 14.71, 14.71, 14.71, 14.71, 14.6, 15.05, 15.07, 15.07, 13.74, 12.71, 14.99, 16.76, 15.74, 15.47, 14.61, 14.69, 15.34, 15.07, 15.51, 15.95, 16.5, 16.39, 16.39, 16.22, 15.69, 15.2, 13.59, 12.15, 11.09, 10.66, 10.22, 9.86, 9.7, 9.21, 9.21, 8.72, 10.6, 9.21, 9.45, 9.89, 9.97, 9.54, 9.45, 9.45, 9.32, 10.4, 9.2, 9.4, 8.94, 9.3, 9.1, 8.73, 8.73, 9.09, 9.27, 8.75, 8.41, 7.27, 8.35, 8.64, 10.79, 13.99, 18.62, 24.0, 24.08, 18.31, 15.97, 13.95, 14.4, 14.65, 15.62, 17.53, 17.26, 14.75, 13.03, 12.81, 12.03, 12.03, 12.13, 11.9, 10.29, 9.92, 9.67, 10.01, 9.4, 10.81, 11.87, 12.52, 12.52, 13.83, 13.83, 13.83, 13.83, 13.83, 13.82, 13.82, 14.27, 14.71, 14.71, 14.71, 14.6, 14.6, 14.6, 14.6, 15.07, 14.9, 14.03, 13.39, 14.5, 15.97, 16.06, 15.51, 15.53, 16.41, 16.86, 16.41, 15.62, 15.62, 16.06, 16.54, 16.54, 16.51, 16.39, 15.9, 14.79, 13.7, 12.58, 11.18, 10.58, 10.18, 10.0, 9.51, 9.21, 9.21, 8.72, 10.6, 9.97, 9.97, 9.97, 10.32, 9.86, 9.7, 10.09, 9.86, 9.3, 9.04, 9.66, 9.48, 8.93, 7.81, 8.82, 9.3, 9.3, 8.75, 7.59, 7.59, 7.42, 7.78, 8.83, 10.43, 16.14, 21.57, 22.96, 1.98, 4.24, 9.74, 12.64, 15.31, 16.09, 14.6, 14.03, 14.81, 13.64, 13.41, 13.2, 12.5, 12.65, 11.44, 10.55, 9.48, 9.8, 10.81, 10.81, 11.52, 12.52, 13.02, 13.02, 13.82, 13.82, 13.83, 13.82, 13.82, 13.82, 13.82, 14.27, 14.71, 14.6, 15.05, 15.05, 14.6, 14.6, 14.42, 14.9, 14.9, 14.47, 13.82, 14.25, 15.82, 15.53, 14.64, 15.09, 16.07, 16.96, 17.4, 16.96, 16.51, 15.62, 15.62, 16.07, 16.09, 16.07, 15.97, 15.61, 15.38, 13.39, 11.6, 10.47, 10.6, 10.42, 10.42, 9.51, 9.7, 9.21, 10.6, 9.97, 9.97, 10.05, 10.27, 9.7, 10.09, 9.86, 9.48, 9.48, 9.42, 9.69, 10.24, 7.82, 7.58, 8.6, 9.3, 9.08, 7.9, 7.72, 7.42, 7.06, 6.86, 6.67, 8.05, 11.29, 26.21, 18.57, 8.93, 0.0, 3.96, 11.68, 16.88, 16.71, 14.38, 13.77, 13.19, 13.92, 14.59, 14.29, 12.63, 11.7, 12.33, 12.33, 9.8, 9.8, 11.15, 11.52, 11.9, 12.89, 12.51, 12.51, 13.82, 13.82, 13.82, 13.82, 13.82, 13.82, 13.72, 14.16, 14.6, 14.6, 15.05, 15.05, 15.05, 14.42, 14.86, 14.86, 14.86, 14.42, 14.25, 14.25, 15.12, 15.61, 14.94, 14.09, 14.65, 15.98, 16.87, 17.31, 17.31, 16.43, 16.07, 15.18, 15.62, 15.62, 15.55, 15.55, 15.62, 13.86, 12.0, 10.81, 11.08, 10.49, 10.42, 10.12, 9.7, 9.21, 11.13, 10.6, 10.88, 10.88, 10.4, 10.4, 10.4, 10.0, 10.0, 9.09, 8.82, 9.42, 9.66, 8.73, 6.91, 7.28, 8.07, 8.22, 7.9, 7.9, 7.9, 7.73, 6.71, 6.44, 8.58, 19.77, 26.39, 27.19, 21.59, 14.53, 12.96, 11.95, 14.3, 15.15, 15.93, 14.5, 13.92, 13.91, 13.97, 12.63, 11.22, 11.25, 12.33, 12.96, 12.12, 11.15, 11.44, 11.79, 12.51, 12.51, 12.51, 12.51, 13.72, 13.72, 13.72, 13.72, 13.28, 13.28, 13.72, 14.16, 14.16, 14.42, 14.86, 14.86, 14.86, 14.86, 14.86, 14.86, 14.42, 14.42, 14.25, 14.69, 15.12, 15.98, 16.05, 15.18, 14.31, 14.97, 16.29, 16.87, 16.88, 16.87, 16.43, 15.99, 15.55, 15.11, 15.11, 15.11, 15.18, 14.75, 12.35, 11.24, 11.08, 10.91, 10.42, 10.18, 9.7, 9.86, 9.86, 9.86, 9.81, 9.63, 9.63, 11.44, 10.21, 9.6, 9.2, 8.93, 9.32, 8.55, 9.46, 9.09, 9.3, 7.28, 7.81, 8.41, 8.47, 8.07, 7.65, 8.24, 8.24, 9.63, 11.58, 15.98, 23.69, 25.74, 26.57, 25.36, 20.63, 15.99, 13.53, 13.27, 14.99, 15.16, 15.07, 13.99, 10.87, 10.31, 10.61, 10.92, 11.56, 12.72, 14.84, 13.49, 12.01, 12.27, 11.75, 11.75, 11.75, 11.75, 13.72, 13.72, 13.28, 13.28, 13.28, 13.28, 13.72, 13.99, 14.42, 14.37, 14.37, 14.81, 14.86, 15.3, 15.3, 14.86, 14.42, 14.42, 14.25, 14.69, 15.12, 15.98, 16.41, 16.05, 15.61, 14.75, 15.23, 16.29, 16.73, 16.73, 16.87, 16.43, 16.44, 15.55, 15.11, 15.09, 15.17, 15.18, 13.69, 11.28, 11.56, 10.91, 10.6, 10.18, 10.34, 9.86, 9.86, 9.86, 9.86, 10.12, 10.12, 9.63, 11.56, 11.45, 10.88, 10.0, 9.32, 9.7, 10.48, 9.82, 9.09, 8.59, 7.51, 7.87, 8.58, 8.75, 8.24, 7.96, 9.17, 10.5, 11.46, 14.51, 18.65, 23.55, 25.98, 25.61, 25.43, 20.43, 16.04, 9.17, 12.65, 16.09, 13.42, 10.27, 9.22, 10.18, 11.06, 11.38, 11.38, 12.11, 14.2, 14.76, 13.35, 12.13, 11.37, 11.88, 11.69, 11.69, 13.28, 13.28, 13.28, 13.28, 13.11, 13.55, 13.55, 13.99, 14.42, 14.37, 14.37, 14.81, 14.81, 15.25, 15.25, 14.81, 14.42, 14.18, 14.18, 14.69, 15.12, 15.55, 15.98, 16.41, 16.05, 15.61, 15.18, 15.61, 16.1, 16.29, 16.29, 15.85, 15.85, 16.29, 16.29, 15.98, 15.65, 15.45, 14.75, 13.27, 11.13, 11.08, 10.6, 10.18, 10.18, 10.18, 10.12, 9.7, 9.7, 10.12, 10.12, 10.29, 9.86, 9.81, 10.6, 10.17, 11.3, 10.27, 9.4, 10.0, 10.24, 9.16, 9.32, 8.0, 8.93, 8.22, 7.68, 9.53, 10.6, 11.45, 12.2, 13.74, 17.2, 20.2, 22.48, 24.9, 25.08, 24.01, 16.22, 8.53, 11.2, 9.16, 8.43, 8.31, 8.94, 10.37, 11.38, 11.79, 11.88, 12.62, 13.02, 15.2, 14.88, 12.89, 12.13, 11.94, 12.25, 12.25, 13.28, 13.28, 13.28, 13.11, 13.11, 13.55, 13.55, 13.99, 14.42, 14.37, 14.37, 14.81, 14.81, 15.25, 15.25, 15.25, 14.42, 14.42, 14.61, 15.04, 15.12, 15.55, 15.98, 15.98, 15.98, 16.05, 15.61, 15.18, 15.18, 15.61, 15.82, 15.82, 15.61, 15.82, 15.82, 16.07, 16.07, 15.47, 15.18, 14.31, 12.36, 10.66, 10.6, 10.0, 9.92, 9.92, 10.12, 10.12, 10.12, 10.12, 10.29, 10.29, 10.29, 9.81, 9.63, 11.14, 11.45, 10.88, 9.8, 10.4, 10.99, 10.4, 9.6, 8.58, 7.9, 9.17, 10.25, 10.4, 10.92, 11.87, 13.11, 14.72, 15.65, 16.07, 18.57, 22.61, 25.21, 25.05, 19.74, 14.58, 9.6, 5.92, 5.72, 8.72, 9.48, 10.12, 11.11, 12.57, 13.26, 12.89, 13.83, 14.79, 15.72, 13.93, 13.68, 13.83, 14.3, 14.3, 13.28, 13.28, 13.11, 13.11, 13.11, 13.55, 13.55, 13.99, 14.37, 14.37, 14.37, 14.81, 14.81, 15.25, 15.25, 15.25, 14.86, 14.42, 14.86, 15.04, 15.04, 15.12, 15.55, 15.98, 15.98, 15.98, 15.55, 15.12, 15.12, 15.38, 15.82, 15.82, 15.82, 15.82, 15.97, 16.09, 16.0, 15.78, 15.18, 15.13, 13.21, 10.66, 10.42, 11.37, 11.09, 9.92, 10.12, 9.86, 10.67, 10.29, 10.67, 10.05, 10.05, 11.8, 12.22, 10.88, 12.3, 11.72, 10.79, 10.4, 10.99, 11.03, 10.0, 9.3, 8.22, 9.69, 11.31, 11.34, 10.68, 11.14, 12.83, 15.08, 16.07, 15.62, 16.36, 18.62, 20.55, 22.11, 24.56, 21.2, 16.85, 7.68, 6.57, 7.22, 9.85, 10.82, 11.79, 13.25, 13.83, 14.16, 14.05, 14.58, 15.2, 15.05, 14.24, 14.71, 14.71, 14.71, 13.11, 13.11, 13.11, 13.11, 13.11, 13.55, 13.55, 13.94, 14.37, 14.37, 14.37, 14.37, 14.81, 15.25, 15.25, 15.25, 15.3, 14.86, 14.61, 14.61, 15.04, 14.69, 15.12, 15.55, 15.55, 15.98, 15.55, 15.12, 15.12, 15.34, 15.34, 15.34, 15.34, 15.53, 15.65, 15.62, 16.0, 15.75, 15.13, 15.13, 14.07, 11.94, 10.6, 10.0, 9.92, 11.09, 11.37, 11.3, 10.46, 9.83, 9.83, 10.33, 11.16, 12.81, 12.65, 11.38, 10.29, 10.67, 11.87, 11.34, 11.21, 11.34, 9.97, 8.75, 9.17, 10.25, 11.21, 11.99, 10.04, 9.39, 10.68, 13.05, 17.9, 19.35, 17.36, 17.83, 18.44, 17.86, 20.77, 23.5, 20.83, 12.4, 11.2, 10.52, 10.37, 12.33, 13.48, 13.64, 14.31, 14.75, 14.31, 15.13, 15.04, 16.19, 15.36, 14.42, 14.71, 14.71, 13.11, 13.11, 13.11, 13.11, 13.11, 13.55, 13.5, 13.94, 14.37, 14.37, 14.37, 14.37, 14.75, 15.18, 15.25, 15.25, 15.25, 14.61, 14.61, 14.61, 14.61, 14.61, 14.69, 15.12, 15.47, 15.47, 15.47, 15.04, 14.9, 14.9, 15.3, 15.34, 15.07, 15.17, 15.2, 15.12, 15.45, 15.31, 15.13, 15.13, 14.49, 12.79, 10.6, 10.18, 10.12, 10.95, 12.63, 12.4, 11.57, 10.33, 10.54, 10.6, 11.2, 11.87, 11.87, 11.63, 10.72, 11.28, 10.8, 12.08, 10.92, 10.99, 9.89, 9.17, 9.67, 9.67, 10.25, 10.99, 10.09, 10.18, 8.63, 9.97, 15.41, 22.71, 22.55, 19.03, 18.44, 15.82, 16.09, 20.49, 20.13, 18.01, 12.78, 13.39, 13.85, 13.92, 14.31, 15.12, 14.23, 14.23, 14.23, 14.15, 14.9, 15.18, 15.61, 15.1, 15.11, 15.11, 13.11, 13.11, 13.11, 13.11, 13.11, 13.55, 13.5, 13.94, 14.37, 14.37, 14.37, 14.31, 14.31, 14.75, 15.25, 15.25, 14.95, 14.95, 15.04, 14.61, 14.61, 14.61, 14.73, 14.73, 14.73, 15.16, 15.47, 14.61, 16.27, 13.94, 14.86, 15.51, 15.17, 15.2, 14.73, 15.01, 14.87, 15.13, 15.13, 15.13, 15.13, 13.83, 11.03, 10.18, 10.34, 10.34, 11.63, 12.72, 11.87, 12.3, 12.92, 11.63, 10.91, 11.35, 11.35, 11.35, 11.31, 10.84, 10.6, 10.27, 11.39, 10.6, 9.58, 9.97, 9.67, 9.77, 9.1, 10.48, 10.61, 10.8, 9.38, 9.6, 12.87, 21.01, 26.84, 22.33, 17.28, 12.47, 14.72, 17.5, 18.95, 17.02, 16.61, 14.13, 15.27, 15.22, 15.58, 15.2, 15.2, 13.86, 13.39, 13.33, 13.96, 14.07, 15.19, 14.68, 15.11, 15.11, 13.11, 13.11, 13.11, 13.11, 13.11, 13.5, 13.5, 13.94, 14.37, 14.37, 14.37, 14.31, 14.31, 14.31, 14.95, 14.95, 14.95, 14.95, 14.95, 14.61, 14.73, 14.73, 14.73, 14.31, 14.73, 14.73, 14.73, 14.61, 13.94, 15.83, 14.27, 15.2, 15.65, 15.62, 15.11, 14.84, 14.84, 14.7, 15.13, 15.13, 15.13, 14.27, 12.06, 10.77, 10.34, 10.77, 11.2, 12.49, 11.63, 12.92, 12.66, 11.78, 10.91, 10.91, 10.91, 11.15, 11.09, 10.6, 10.38, 10.4, 10.09, 9.58, 10.19, 9.3, 9.97, 10.16, 10.21, 9.8, 11.09, 11.6, 10.99, 11.03, 12.04, 17.86, 27.83, 26.33, 15.01, 12.93, 14.53, 16.22, 17.48, 17.62, 17.05, 16.27, 14.79, 15.49, 15.63, 15.2, 15.65, 14.27, 13.11, 12.58, 12.65, 13.75, 14.01, 14.58, 15.1, 15.1, 12.68, 12.68, 13.11, 13.11, 13.07, 13.5, 13.5, 13.94, 13.94, 14.37, 14.31, 14.23, 14.23, 14.31, 14.53, 14.95, 14.95, 14.53, 14.53, 14.73, 14.73, 14.73, 14.6, 14.19, 14.19, 14.6, 14.95, 14.61, 14.86, 14.6, 14.75, 14.75, 14.73, 15.11, 14.99, 14.84, 14.84, 14.87, 15.31, 15.31, 15.13, 14.64, 12.92, 10.34, 10.34, 10.77, 11.2, 12.22, 11.78, 11.78, 11.78, 11.35, 10.47, 10.91, 10.72, 10.46, 10.53, 9.86, 9.7, 9.78, 10.99, 9.82, 9.82, 9.82, 8.93, 9.3, 9.3, 10.0, 10.68, 11.6, 11.6, 12.72, 12.9, 16.09, 23.68, 26.6, 20.01, 15.13, 15.03, 16.01, 16.78, 16.76, 16.76, 16.76, 17.2, 14.11, 14.97, 14.47, 14.61, 13.05, 11.92, 12.15, 12.4, 13.33, 14.35, 14.11, 15.19, 15.19, 12.68, 12.68, 13.07, 13.07, 13.07, 13.07, 13.5, 13.94, 13.67, 14.31, 14.23, 14.23, 14.23, 13.99, 14.42, 14.84, 14.53, 14.53, 14.19, 14.6, 14.21, 14.6, 14.6, 14.6, 14.19, 14.19, 14.95, 14.86, 15.05, 15.17, 14.75, 14.3, 14.28, 14.22, 14.55, 14.84, 14.84, 14.84, 14.84, 15.31, 15.08, 14.64, 13.35, 11.2, 10.34, 10.34, 11.35, 11.78, 11.78, 10.88, 10.88, 10.88, 10.44, 10.29, 10.54, 10.24, 9.86, 9.4, 9.4, 9.4, 8.82, 10.99, 9.82, 10.24, 10.24, 10.09, 9.58, 10.17, 10.58, 11.2, 11.92, 13.28, 14.51, 17.41, 21.39, 22.5, 21.7, 18.58, 16.22, 15.99, 15.54, 15.97, 15.97, 15.53, 15.38, 12.96, 12.74, 12.6, 11.8, 11.28, 11.83, 12.39, 13.23, 13.64, 14.56, 15.22, 15.04, 15.04, 12.39, 12.39, 12.82, 12.82, 13.07, 13.07, 13.25, 13.25, 13.57, 13.88, 14.23, 14.23, 13.99, 13.99, 13.99, 14.42, 14.19, 14.19, 13.8, 14.21, 14.21, 14.21, 14.6, 14.6, 14.6, 14.19, 14.61, 14.86, 14.62, 14.72, 14.75, 14.75, 14.22, 13.67, 14.11, 14.11, 14.55, 14.84, 14.84, 14.84, 14.64, 14.64, 13.78, 11.63, 9.91, 11.35, 11.78, 11.35, 11.89, 10.88, 10.44, 10.72, 10.72, 9.83, 9.6, 10.0, 9.58, 9.2, 9.02, 9.02, 9.02, 8.65, 11.2, 9.58, 9.97, 10.8, 9.6, 10.17, 10.58, 10.73, 12.25, 12.52, 16.12, 18.7, 20.57, 19.52, 19.93, 20.19, 19.67, 20.32, 18.14, 14.86, 13.11, 12.68, 12.89, 12.18, 11.42, 11.66, 11.53, 12.47, 13.35, 13.75, 13.99, 14.21, 14.9, 15.49, 15.37, 15.37, 12.39, 12.39, 12.82, 12.82, 12.82, 12.72, 13.25, 13.25, 13.57, 13.8, 13.8, 13.86, 13.86, 13.99, 13.99, 14.42, 14.19, 13.8, 13.8, 13.99, 13.99, 14.21, 14.21, 14.6, 14.19, 14.61, 14.86, 15.07, 14.72, 14.75, 14.75, 14.65, 14.21, 13.65, 13.65, 13.67, 14.11, 14.55, 14.4, 14.84, 14.84, 14.64, 13.29, 11.61, 10.72, 11.31, 11.35, 10.88, 11.31, 11.28, 10.24, 10.05, 10.24, 9.6, 9.6, 9.58, 9.58, 9.2, 9.32, 9.32, 9.32, 8.93, 10.8, 9.58, 9.97, 10.8, 9.2, 10.17, 10.58, 10.58, 11.14, 12.18, 14.65, 19.92, 20.78, 18.6, 17.87, 19.08, 20.82, 22.27, 18.68, 14.31, 11.96, 11.68, 11.02, 10.9, 11.16, 11.5, 12.47, 13.35, 14.17, 14.49, 14.7, 14.87, 15.45, 15.58, 15.58, 15.5, 12.39, 12.39, 12.39, 12.82, 12.72, 12.72, 13.25, 13.15, 13.57, 13.44, 13.44, 13.44, 13.44, 13.57, 13.99, 14.03, 14.03, 13.59, 14.03, 14.44, 13.99, 14.21, 14.6, 14.6, 14.95, 14.86, 15.07, 15.17, 14.75, 14.73, 14.21, 14.21, 14.09, 13.65, 13.65, 13.65, 13.65, 14.11, 14.4, 14.4, 14.4, 14.84, 12.87, 11.61, 10.29, 10.34, 10.88, 11.31, 11.52, 11.52, 10.88, 10.24, 9.83, 9.2, 9.07, 9.47, 9.47, 9.07, 8.93, 9.32, 8.93, 8.93, 10.24, 9.6, 9.6, 10.0, 10.0, 9.58, 10.2, 10.2, 9.81, 11.33, 13.43, 17.43, 22.95, 21.03, 18.03, 17.36, 19.93, 19.81, 16.84, 15.02, 13.39, 11.04, 10.9, 11.16, 12.25, 12.39, 13.23, 13.99, 14.7, 14.87, 15.03, 15.57, 15.63, 15.63, 15.65, 15.58, 12.39, 12.39, 12.39, 12.72, 12.38, 12.38, 12.38, 13.15, 13.44, 13.44, 13.44, 13.44, 13.44, 13.2, 13.62, 13.62, 14.03, 14.03, 14.03, 14.03, 14.44, 14.6, 14.6, 14.53, 14.86, 14.62, 14.72, 14.75, 14.73, 14.65, 14.21, 14.09, 14.09, 13.65, 13.65, 13.65, 13.65, 13.65, 14.09, 13.96, 14.36, 14.36, 13.05, 10.41, 11.61, 11.15, 12.87, 12.8, 12.37, 12.04, 11.62, 10.94, 10.24, 9.32, 9.32, 9.32, 9.07, 8.93, 8.93, 9.2, 8.93, 8.93, 8.27, 10.0, 9.7, 10.0, 8.82, 9.58, 9.81, 10.18, 10.43, 10.43, 12.45, 13.99, 19.82, 22.39, 23.23, 17.15, 16.87, 14.86, 13.77, 14.61, 15.59, 13.54, 11.5, 12.25, 13.07, 13.57, 13.78, 14.44, 15.01, 15.12, 15.18, 15.65, 15.65, 15.65, 15.2, 15.65, 12.39, 12.39, 12.1, 11.97, 12.38, 12.38, 12.38, 13.15, 13.02, 13.44, 13.44, 13.44, 13.02, 13.02, 13.43, 13.43, 13.84, 14.03, 14.03, 14.03, 14.03, 14.19, 14.95, 15.04, 15.05, 14.72, 14.75, 14.72, 14.65, 14.65, 14.21, 13.65, 13.65, 13.65, 13.65, 13.65, 13.65, 13.65, 13.65, 13.65, 13.92, 14.36, 13.49, 11.42, 10.54, 12.68, 13.72, 13.39, 12.98, 12.45, 12.45, 11.62, 10.79, 9.72, 8.91, 8.91, 9.2, 9.2, 8.8, 8.93, 8.93, 8.76, 10.61, 9.7, 9.7, 9.09, 8.55, 9.86, 9.16, 10.18, 10.43, 10.43, 11.44, 12.45, 14.61, 20.54, 26.79, 24.35, 15.52, 12.1, 13.56, 15.77, 17.01, 17.82, 14.05, 12.92, 13.57, 13.78, 14.4, 14.57, 14.67, 15.18, 15.2, 15.65, 15.62, 15.18, 14.73, 14.73, 12.1, 12.1, 12.1, 11.97, 11.97, 12.38, 12.38, 13.15, 13.02, 13.02, 13.02, 13.02, 13.02, 13.02, 13.02, 13.43, 13.43, 14.03, 13.62, 14.03, 14.03, 14.19, 14.53, 14.86, 15.17, 14.75, 14.72, 14.72, 14.65, 14.65, 14.21, 13.65, 13.65, 13.65, 13.21, 13.65, 13.65, 13.65, 13.65, 13.65, 14.09, 14.09, 13.65, 11.86, 11.42, 12.33, 13.72, 13.23, 12.37, 12.37, 12.3, 11.21, 10.38, 9.13, 9.04, 9.04, 8.8, 8.8, 8.8, 8.93, 8.65, 8.65, 8.38, 10.09, 9.7, 9.09, 9.09, 9.09, 8.79, 10.18, 10.43, 10.4, 11.62, 11.37, 13.44, 16.85, 22.61, 29.19, 23.77, 17.02, 15.19, 17.08, 19.39, 21.33, 17.49, 13.01, 13.49, 13.53, 14.13, 14.67, 14.73, 15.2, 15.2, 15.18, 14.66, 14.22, 14.22, 14.22, 12.1, 12.1, 12.1, 11.97, 11.97, 12.38, 12.72, 12.6, 13.02, 13.02, 12.62, 12.62, 13.02, 13.02, 13.02, 13.43, 13.43, 13.62, 13.62, 14.03, 14.19, 14.53, 14.86, 15.17, 14.75, 14.3, 14.72, 14.72, 14.64, 14.65, 14.09, 13.65, 13.65, 13.21, 13.21, 13.21, 13.65, 13.65, 13.65, 13.65, 14.09, 14.09, 13.62, 12.3, 11.86, 12.3, 13.01, 12.58, 11.52, 11.03, 10.6, 10.6, 9.68, 8.63, 8.63, 8.63, 8.8, 8.8, 8.8, 8.38, 8.09, 8.09, 8.09, 9.86, 9.09, 9.09, 9.46, 9.46, 8.79, 9.81, 10.0, 10.32, 10.85, 12.21, 12.98, 14.47, 18.22, 23.45, 27.51, 24.47, 20.01, 16.95, 19.51, 20.91, 19.01, 13.18, 13.18, 13.21, 14.22, 14.67, 14.73, 14.75, 15.18, 14.67, 14.22, 13.65, 13.65, 13.65, 11.68, 11.68, 11.97, 11.97, 11.97, 11.97, 12.38, 12.6, 12.21, 12.62, 12.62, 12.62, 13.02, 13.02, 13.02, 13.43, 13.43, 13.62, 13.62, 13.77, 14.53, 14.81, 15.05, 15.2, 15.2, 14.72, 14.72, 14.64, 14.64, 14.5, 14.09, 14.09, 13.76, 13.76, 13.32, 13.21, 13.21, 13.65, 13.65, 13.65, 14.09, 14.06, 13.62, 12.58, 11.71, 11.71, 12.09, 12.09, 11.03, 10.18, 9.33, 8.84, 8.84, 8.84, 8.84, 8.63, 8.63, 8.4, 8.27, 8.0, 8.0, 7.72, 7.72, 7.72, 8.82, 9.09, 9.09, 8.47, 9.16, 9.05, 10.62, 9.42, 10.4, 11.92, 12.96, 13.99, 16.16, 19.76, 21.45, 23.34, 26.36, 22.04, 19.72, 20.91, 19.44, 14.9, 12.86, 13.39, 13.39, 13.86, 15.2, 13.77, 14.22, 13.76, 13.65, 13.21, 13.21, 13.21, 11.55, 11.55, 11.55, 11.97, 11.97, 11.97, 12.38, 12.21, 12.21, 12.62, 12.62, 12.62, 13.02, 13.02, 13.02, 13.43, 13.62, 13.62, 13.62, 13.77, 14.37, 14.6, 15.16, 15.2, 14.75, 14.72, 14.72, 14.64, 14.64, 14.5, 14.06, 14.09, 13.76, 13.76, 13.32, 13.32, 13.32, 13.65, 13.62, 13.62, 13.62, 14.06, 13.44, 13.01, 12.14, 11.66, 12.09, 12.09, 11.66, 10.6, 9.75, 8.42, 8.42, 8.84, 8.42, 8.63, 8.52, 8.52, 8.27, 8.0, 8.0, 8.0, 7.35, 7.44, 7.21, 9.09, 8.73, 8.18, 8.42, 9.42, 9.42, 9.65, 10.43, 11.6, 12.96, 13.19, 15.11, 17.67, 18.79, 18.47, 21.99, 29.13, 22.55, 21.08, 21.63, 16.05, 12.86, 12.94, 12.96, 14.3, 13.81, 12.86, 12.86, 12.74, 12.74, 12.27, 12.27, 12.27, 11.55, 11.55, 11.55, 11.97, 11.8, 11.8, 11.97, 12.21, 12.21, 12.62, 12.62, 12.62, 12.62, 13.02, 13.02, 13.02, 13.2, 13.2, 13.2, 13.67, 14.58, 14.71, 14.75, 15.2, 15.2, 14.72, 14.19, 14.64, 14.5, 14.5, 14.5, 14.21, 14.21, 13.76, 13.31, 13.31, 13.31, 13.31, 13.62, 13.62, 13.62, 13.62, 13.44, 12.96, 12.53, 11.66, 12.09, 12.09, 12.09, 11.23, 10.32, 9.03, 8.6, 8.42, 8.42, 8.52, 8.52, 8.12, 7.87, 7.72, 7.44, 7.44, 7.44, 7.15, 6.62, 9.09, 7.9, 7.9, 8.73, 8.42, 9.05, 9.43, 10.63, 11.6, 12.56, 13.52, 14.58, 16.31, 17.59, 17.25, 19.02, 25.78, 27.4, 22.01, 23.89, 17.35, 15.08, 12.94, 12.96, 12.42, 12.42, 12.41, 11.96, 11.52, 11.52, 11.15, 11.15, 11.15, 11.55, 11.55, 11.55, 11.39, 11.8, 11.8, 11.8, 12.38, 12.38, 12.38, 12.62, 12.62, 12.62, 13.02, 13.02, 13.2, 13.2, 13.2, 13.57, 13.57, 14.37, 14.71, 15.2, 15.2, 15.2, 14.72, 14.19, 13.75, 14.06, 14.06, 14.64, 14.64, 14.19, 13.75, 13.31, 13.31, 13.31, 13.31, 13.18, 13.18, 13.18, 13.44, 13.39, 12.96, 12.53, 12.09, 12.53, 12.09, 12.09, 11.23, 10.32, 9.89, 9.03, 8.55, 8.34, 8.34, 8.34, 8.12, 8.0, 7.72, 7.72, 7.72, 7.44, 6.92, 6.92, 8.49, 8.24, 8.24, 8.73, 8.79, 9.43, 9.43, 10.63, 11.2, 12.15, 12.79, 13.75, 14.79, 16.25, 17.23, 18.22, 20.96, 25.58, 25.99, 25.29, 20.11, 17.28, 14.19, 12.07, 12.07, 11.62, 11.62, 11.18, 10.73, 10.73, 10.7, 10.7, 10.7, 11.55, 11.55, 11.39, 11.39, 11.39, 11.8, 11.8, 12.21, 11.99, 11.77, 12.17, 12.17, 12.17, 12.79, 12.79, 13.2, 13.2, 13.2, 13.57, 13.88, 14.14, 14.71, 14.75, 14.75, 14.72, 14.64, 14.19, 13.75, 13.62, 13.75, 13.75, 14.19, 14.19, 13.75, 13.31, 13.31, 13.31, 13.18, 13.18, 13.15, 13.15, 13.15, 13.59, 13.15, 12.53, 12.09, 12.53, 12.53, 11.66, 11.23, 10.32, 9.89, 9.4, 8.97, 8.55, 8.34, 8.34, 8.0, 7.6, 7.72, 7.72, 7.34, 7.34, 6.87, 6.31, 7.4, 7.74, 8.02, 8.47, 8.79, 9.16, 9.2, 10.04, 10.63, 11.26, 12.23, 13.19, 13.64, 15.03, 16.64, 17.63, 18.84, 20.67, 24.59, 26.32, 22.21, 14.42, 10.52, 10.96, 11.52, 11.15, 10.73, 10.28, 10.25, 10.14, 10.41, 10.41, 10.41, 11.39, 10.99, 11.39, 11.39, 11.39, 11.8, 11.38, 11.38, 11.77, 11.77, 12.17, 12.17, 12.56, 12.79, 12.39, 12.79, 12.79, 13.15, 13.15, 13.94, 14.14, 14.75, 14.75, 14.75, 14.72, 14.62, 14.18, 14.19, 13.75, 13.31, 13.31, 13.31, 13.75, 13.75, 13.31, 12.86, 12.86, 12.71, 12.71, 12.71, 13.15, 13.15, 13.15, 13.15, 12.71, 12.71, 12.53, 12.09, 11.66, 11.18, 10.32, 9.89, 9.4, 8.55, 8.12, 8.12, 7.84, 7.84, 7.6, 7.6, 7.6, 7.34, 7.17, 6.51, 6.01, 6.64, 7.4, 7.59, 8.02, 8.35, 9.16, 9.16, 9.42, 10.04, 10.66, 11.64, 12.27, 13.03, 14.03, 16.02, 17.59, 18.16, 19.36, 22.06, 26.23, 17.59, 14.86, 10.32, 10.8, 11.4, 11.52, 11.06, 10.6, 10.41, 10.18, 10.32, 10.32, 10.32, 10.99, 10.8, 10.8, 11.2, 11.39, 10.99, 11.38, 11.38, 11.77, 11.77, 12.17, 12.17, 12.56, 12.56, 12.17, 12.21, 12.38, 13.15, 13.88, 13.94, 14.14, 14.27, 14.75, 14.72, 14.72, 14.62, 14.18, 14.18, 13.75, 13.75, 13.31, 13.31, 13.31, 13.31, 12.86, 12.86, 12.85, 12.71, 12.71, 12.71, 12.71, 12.71, 13.15, 13.15, 12.71, 12.71, 12.24, 12.04, 11.61, 11.18, 10.32, 9.4, 9.4, 8.97, 8.55, 8.06, 8.06, 7.84, 7.43, 7.84, 7.6, 7.2, 6.79, 6.59, 6.01, 5.06, 6.32, 6.95, 7.27, 8.02, 8.73, 9.08, 9.16, 8.82, 10.04, 10.66, 11.66, 12.65, 13.99, 15.37, 16.97, 17.59, 18.72, 22.05, 22.83, 18.79, 16.12, 11.36, 10.63, 10.96, 10.96, 10.68, 10.08, 9.6, 10.0, 10.55, 10.55, 10.55, 10.8, 10.8, 10.35, 10.35, 10.73, 10.99, 10.99, 10.94, 10.94, 11.31, 11.69, 11.69, 12.56, 12.17, 11.77, 12.21, 12.62, 13.15, 13.88, 13.94, 14.14, 14.27, 14.75, 14.72, 14.72, 14.18, 14.18, 13.74, 13.74, 13.75, 13.31, 13.31, 13.31, 13.31, 12.86, 12.85, 12.71, 12.27, 12.27, 12.71, 12.71, 12.71, 12.71, 12.71, 12.71, 12.68, 12.24, 12.24, 11.8, 11.36, 10.49, 9.83, 9.83, 8.97, 8.67, 8.06, 7.63, 7.63, 7.63, 7.43, 7.33, 7.06, 7.06, 6.23, 6.0, 5.38, 6.01, 5.82, 6.48, 7.27, 8.02, 8.73, 8.73, 8.02, 8.79, 9.76, 11.03, 13.02, 13.92, 14.74, 15.37, 16.97, 19.27, 27.76, 22.48, 19.51, 16.91, 13.72, 11.49, 9.89, 10.27, 10.4, 10.04, 10.04, 10.63, 11.2, 11.2, 11.2, 10.35, 10.35, 10.35, 10.35, 10.73, 10.56, 10.56, 10.94, 10.94, 11.31, 11.69, 11.69, 12.17, 12.17, 11.77, 12.21, 12.79, 13.15, 13.5, 14.14, 14.27, 14.27, 14.75, 14.72, 14.62, 14.18, 14.18, 13.74, 13.74, 13.31, 13.31, 13.31, 13.31, 13.31, 12.85, 12.27, 12.27, 12.27, 12.27, 12.27, 12.71, 12.71, 12.71, 12.71, 12.68, 12.68, 12.24, 12.24, 11.8, 11.36, 10.45, 10.02, 9.58, 9.15, 8.67, 8.24, 8.24, 7.63, 7.63, 7.33, 6.92, 6.92, 6.67, 6.52, 5.65, 5.38, 4.74, 3.78, 6.79, 7.4, 7.76, 8.12, 8.38, 8.73, 8.73, 9.4, 11.04, 12.62, 13.41, 14.18, 14.39, 15.99, 24.09, 26.5, 23.64, 19.52, 16.66, 13.44, 11.87, 10.4, 9.7, 10.15, 10.66, 11.2, 11.2, 12.04, 12.04, 12.04, 10.35, 10.35, 10.35, 9.89, 9.89, 10.25, 10.56, 10.94, 10.94, 11.31, 11.31, 11.31, 11.77, 11.77, 11.38, 12.21, 12.79, 13.15, 13.5, 14.14, 14.27, 14.27, 14.3, 14.27, 14.18, 14.18, 13.74, 13.74, 13.74, 13.29, 12.85, 13.29, 13.31, 13.31, 12.85, 12.27, 12.27, 12.27, 11.84, 12.27, 12.27, 12.27, 12.71, 12.68, 12.68, 12.24, 12.24, 12.24, 12.2, 11.33, 10.45, 10.02, 9.54, 9.11, 8.67, 8.24, 8.24, 7.81, 7.56, 7.14, 7.14, 6.92, 6.92, 6.4, 5.95, 5.65, 5.38, 4.43, 5.69, 7.15, 7.51, 7.76, 8.12, 8.79, 9.16, 9.58, 10.43, 11.64, 13.02, 13.03, 13.42, 15.01, 22.88, 27.12, 26.37, 19.4, 14.79, 11.2, 10.0, 9.27, 10.09, 11.04, 11.75, 12.04, 12.04, 12.14, 12.14, 12.14, 9.52, 9.52, 9.89, 9.89, 9.89, 9.89, 10.25, 10.62, 10.25, 10.62, 10.62, 10.62, 10.94, 11.38, 11.38, 12.21, 13.15, 13.44, 13.7, 13.72, 14.27, 14.3, 14.3, 14.16, 14.16, 14.18, 13.74, 13.74, 13.29, 13.29, 12.85, 13.29, 13.29, 13.29, 12.85, 12.27, 12.27, 12.27, 11.84, 11.84, 12.27, 12.27, 12.24, 12.24, 12.24, 12.24, 12.2, 12.2, 12.2, 11.33, 10.45, 9.97, 9.7, 9.26, 8.67, 8.24, 8.24, 7.76, 7.14, 7.14, 7.14, 6.72, 6.72, 6.4, 5.95, 5.29, 5.38, 4.74, 4.43, 6.79, 7.51, 7.51, 7.76, 8.47, 9.16, 9.2, 9.6, 11.02, 12.03, 13.02, 13.03, 16.22, 20.73, 25.43, 27.89, 20.55, 13.46, 10.94, 10.0, 10.27, 10.27, 11.72, 12.22, 12.3, 11.87, 12.3, 12.3, 12.3, 9.17, 9.17, 9.52, 9.89, 9.52, 9.42, 9.42, 9.77, 10.25, 10.25, 10.62, 10.62, 10.94, 11.38, 11.8, 12.38, 13.15, 13.5, 13.7, 13.82, 13.82, 14.3, 14.27, 14.16, 14.16, 13.74, 13.74, 13.29, 13.29, 13.29, 12.85, 13.29, 13.29, 12.85, 12.85, 12.27, 12.27, 11.84, 11.84, 11.84, 12.24, 12.24, 12.24, 12.24, 12.24, 12.2, 12.2, 12.2, 12.2, 11.33, 10.58, 10.14, 9.7, 9.26, 9.26, 8.67, 8.24, 8.19, 7.76, 7.33, 7.33, 6.9, 6.72, 6.64, 6.25, 5.58, 5.05, 4.74, 4.43, 6.45, 6.79, 7.51, 7.4, 8.12, 8.79, 9.2, 9.6, 10.4, 11.02, 12.03, 13.59, 15.52, 19.15, 24.09, 28.21, 27.44, 14.13, 12.36, 10.94, 10.79, 10.52, 11.03, 11.72, 12.3, 11.87, 11.87, 11.87, 11.87, 9.17, 9.17, 9.17, 9.08, 9.08, 9.42, 9.42, 9.42, 9.42, 9.77, 10.25, 10.62, 11.38, 11.38, 11.8, 12.72, 13.01, 13.5, 13.7, 13.82, 13.86, 14.27, 14.27, 14.16, 13.72, 13.74, 13.74, 13.29, 13.29, 12.85, 12.85, 13.29, 13.29, 12.85, 12.41, 12.27, 11.84, 11.84, 11.84, 11.8, 12.24, 12.24, 12.24, 11.8, 11.76, 11.76, 12.2, 12.37, 12.37, 11.49, 10.58, 10.14, 9.7, 9.7, 9.26, 8.82, 8.24, 7.76, 7.76, 7.37, 6.9, 6.9, 6.9, 7.06, 6.8, 5.95, 5.29, 4.43, 4.71, 5.69, 6.45, 6.79, 7.51, 8.18, 8.82, 9.2, 9.2, 9.77, 10.4, 12.56, 13.52, 15.69, 18.54, 22.5, 25.53, 26.78, 19.23, 13.38, 11.47, 11.3, 10.6, 11.03, 11.3, 12.3, 11.87, 11.87, 11.87, 11.87, 8.82, 8.82, 8.35, 8.69, 8.69, 8.69, 8.69, 9.02, 9.42, 10.25, 10.25, 11.12, 11.38, 11.8, 12.3, 12.72, 13.5, 13.25, 13.82, 13.86, 13.86, 14.27, 14.16, 14.16, 13.72, 13.74, 13.29, 13.29, 13.29, 12.85, 12.85, 13.29, 13.29, 12.85, 12.41, 12.27, 11.84, 11.84, 11.84, 11.8, 11.8, 11.8, 11.8, 11.8, 11.93, 11.93, 11.93, 11.93, 11.93, 11.05, 10.69, 10.25, 10.25, 9.8, 9.26, 9.26, 8.82, 7.94, 7.94, 7.5, 7.48, 7.48, 7.33, 7.06, 6.8, 5.95, 5.29, 5.05, 5.38, 5.38, 5.38, 6.91, 7.58, 7.58, 8.6, 8.82, 9.77, 10.17, 11.11, 12.45, 13.81, 15.51, 18.26, 21.3, 23.57, 23.01, 22.43, 15.35, 12.96, 11.47, 10.79, 10.79, 11.3, 12.04, 12.04, 12.04, 12.04, 12.04, 8.35, 8.35, 8.35, 8.35, 8.35, 8.69, 8.69, 9.02, 9.42, 10.25, 10.25, 10.99, 11.8, 11.97, 12.3, 13.01, 13.25, 13.37, 13.41, 13.86, 13.82, 13.72, 14.16, 14.16, 13.72, 13.28, 13.29, 13.29, 12.85, 12.85, 12.85, 13.29, 13.29, 12.85, 12.41, 12.41, 11.84, 11.84, 11.84, 11.84, 11.8, 11.8, 11.95, 11.95, 11.49, 11.49, 11.49, 12.03, 11.59, 10.7, 10.69, 10.25, 10.25, 10.25, 9.7, 9.26, 8.82, 8.38, 8.38, 8.02, 7.48, 7.48, 7.33, 7.47, 7.2, 6.32, 5.65, 5.65, 5.38, 5.72, 6.08, 7.28, 6.91, 8.18, 8.17, 9.13, 10.08, 10.6, 11.03, 12.04, 13.65, 15.51, 17.78, 20.17, 21.54, 21.16, 22.09, 18.39, 12.96, 12.7, 12.56, 10.94, 11.34, 11.88, 12.4, 12.4, 12.4, 12.4, 8.35, 8.35, 8.35, 8.35, 8.35, 8.69, 8.69, 9.02, 9.89, 10.25, 10.73, 10.99, 11.8, 12.3, 12.58, 13.25, 13.25, 13.41, 13.41, 13.82, 13.82, 13.72, 13.72, 13.72, 13.72, 13.29, 13.29, 13.29, 12.85, 12.85, 12.85, 13.29, 12.85, 12.42, 12.41, 12.41, 11.84, 11.84, 11.4, 11.4, 11.95, 11.95, 11.51, 11.51, 11.06, 11.14, 11.14, 11.14, 11.14, 10.7, 10.28, 10.25, 10.25, 10.25, 9.8, 9.8, 9.36, 8.91, 8.46, 8.01, 7.92, 7.92, 7.76, 7.47, 7.2, 6.52, 5.95, 6.32, 6.32, 6.08, 6.08, 5.95, 5.58, 8.63, 8.17, 9.42, 9.66, 11.03, 11.45, 12.04, 12.96, 15.01, 16.62, 18.74, 20.61, 19.76, 20.94, 20.47, 15.35, 13.2, 13.2, 13.19, 11.83, 11.73, 12.4, 12.98, 12.98, 12.98, 8.35, 8.35, 8.35, 8.35, 8.35, 8.69, 8.69, 9.02, 9.89, 10.25, 10.73, 10.99, 11.8, 12.3, 12.58, 13.25, 13.25, 13.41, 13.41, 13.82, 13.82, 13.72, 13.72, 13.72, 13.72, 13.29, 13.29, 13.29, 12.85, 12.85, 12.85, 13.29, 12.85, 12.42, 12.41, 12.41, 11.84, 11.84, 11.4, 11.4, 11.95, 11.95, 11.51, 11.51, 11.06, 11.14, 11.14, 11.14, 11.14, 10.7, 10.28, 10.25, 10.25, 10.25, 9.8, 9.8, 9.36, 8.91, 8.46, 8.01, 7.92, 7.92, 7.76, 7.47, 7.2, 6.52, 5.95, 6.32, 6.32, 6.08, 6.08, 5.95, 5.58, 8.63, 8.17, 9.42, 10.08, 11.03, 11.45, 12.04, 12.96, 14.58, 16.2, 17.47, 18.73, 18.15, 19.34, 20.32, 18.24, 15.14, 13.58, 13.97, 13.58, 12.96, 12.7, 12.98, 12.98, 12.98]}, {"header": {"dx": 0.06612293990616946, "dy": 0.0552356325346848, "nx": 98, "ny": 59, "la1": 35.046912555036876, "la2": 31.78801023549047, "lo1": -121.43107172385933, "lo2": -114.95102361305473, "refTime": "2026041300", "parameterCategory": 1, "parameterNumber": 3}, "data": [0.0, 0.86, 0.86, 1.77, 1.77, 2.55, 2.55, 3.69, 3.93, 4.05, 4.66, 3.55, 3.47, 3.21, 2.95, 3.08, 2.19, 2.95, 2.6, 2.71, 2.71, 4.08, 3.39, 3.39, 3.42, 3.55, 4.81, 5.6, 5.99, 5.78, 4.81, 3.96, 2.93, 2.08, 1.01, 0.0, -2.0, -4.32, -5.0, -4.44, -4.3, -3.82, -4.08, -3.14, -3.1, -2.5, -1.45, 0.0, 3.2, 6.84, 8.68, 9.73, 10.31, 11.06, 11.47, 11.47, 10.95, 10.95, 9.77, 9.25, 8.68, 8.43, 7.67, 6.8, 6.66, 6.35, 6.54, 6.54, 6.54, 6.54, 6.9, 7.42, 7.4, 7.2, 7.0, 6.28, 5.51, 4.24, 3.13, 2.43, 1.62, 0.79, 0.0, 0.0, 0.0, 0.0, 0.0, 0.0, 0.0, 0.0, 4.1, 7.79, 5.27, 3.41, 2.2, 5.55, 8.1, 8.67, 0.0, 0.0, 0.86, 0.86, 1.77, 2.64, 2.81, 3.69, 4.05, 4.05, 3.94, 3.85, 3.34, 3.08, 2.82, 2.71, 2.02, 2.82, 2.71, 2.95, 2.93, 4.08, 4.08, 3.82, 3.67, 3.68, 4.64, 5.57, 5.78, 5.99, 6.2, 6.29, 5.92, 5.4, 2.94, 0.93, -0.93, -2.57, -4.12, -4.78, -5.86, -5.11, -3.14, -2.56, -1.5, 0.0, 1.78, 6.26, 8.88, 9.62, 10.75, 11.17, 11.47, 11.11, 11.11, 11.06, 10.65, 10.05, 9.25, 8.68, 8.29, 7.45, 7.45, 6.6, 6.47, 6.66, 6.66, 6.47, 6.66, 7.4, 7.6, 8.37, 7.42, 6.85, 6.47, 5.62, 4.81, 4.24, 3.13, 2.43, 1.62, 0.79, 0.0, 0.0, 0.0, 0.0, 0.0, 0.0, 0.0, 0.0, 4.1, 7.79, 5.27, 3.41, 2.2, 5.55, 8.1, 8.67, 0.0, 0.0, 0.86, 0.86, 1.77, 1.95, 2.89, 2.89, 3.18, 4.05, 3.68, 3.55, 3.47, 3.34, 2.82, 1.92, 2.0, 2.08, 2.19, 2.93, 2.82, 2.71, 3.92, 5.27, 5.45, 4.99, 4.99, 4.62, 4.8, 5.98, 7.95, 9.77, 12.29, 9.6, 6.45, 2.95, 1.22, 0.0, -2.7, -3.07, -3.04, 0.0, 0.0, 1.62, 3.52, 6.72, 10.56, 10.47, 10.12, 10.87, 11.88, 11.88, 10.75, 10.75, 10.43, 11.06, 10.18, 9.52, 8.53, 8.29, 7.45, 7.45, 7.23, 6.6, 6.8, 6.6, 6.8, 7.89, 8.61, 8.47, 8.25, 7.6, 7.42, 6.47, 4.91, 4.16, 3.3, 3.13, 2.19, 1.63, 0.77, 0.0, 0.0, 0.0, 0.0, 0.0, 0.0, 0.0, 0.0, 1.61, 5.46, 4.87, 1.33, 1.11, 4.1, 7.43, 8.67, 8.21, 0.0, 0.0, 0.89, 0.86, 1.77, 1.95, 2.98, 2.98, 3.18, 3.0, 3.68, 3.55, 3.47, 2.94, 2.19, 2.0, 1.05, 1.09, 1.05, 2.08, 1.92, 1.33, 2.82, 3.97, 4.64, 5.27, 5.78, 5.2, 4.36, 5.92, 9.42, 11.35, 12.27, 12.11, 9.8, 7.73, 6.44, 2.37, 1.91, 4.24, 5.65, 7.63, 9.2, 9.84, 9.36, 10.47, 9.62, 10.12, 10.87, 11.26, 10.81, 11.17, 11.17, 10.84, 10.31, 10.31, 9.67, 8.68, 8.29, 7.67, 7.45, 7.23, 7.23, 6.6, 6.4, 8.05, 9.17, 10.32, 10.21, 9.74, 9.18, 7.91, 6.9, 6.32, 4.31, 2.56, 1.63, 0.8, 1.64, 0.79, 0.0, 0.0, 0.0, 0.0, 0.0, 0.0, 0.0, 0.0, 0.0, 2.35, 2.15, 0.0, 0.0, 3.29, 7.18, 8.67, 8.21, 7.19, 0.0, 0.0, 0.89, 0.89, 0.95, 1.95, 2.01, 2.98, 3.18, 3.0, 2.81, 2.61, 2.28, 2.42, 2.1, 1.05, 0.97, 1.09, 1.09, 1.09, 1.55, 1.39, 2.95, 3.32, 4.15, 5.4, 6.21, 6.94, 7.82, 7.59, 8.58, 9.3, 9.17, 8.53, 9.13, 8.58, 8.57, 5.63, 5.49, 9.09, 12.66, 11.58, 10.17, 9.06, 9.34, 9.92, 10.75, 10.87, 10.87, 10.43, 10.43, 10.43, 10.43, 10.43, 9.82, 9.39, 8.43, 8.29, 7.67, 7.45, 7.59, 7.59, 6.4, 6.52, 9.09, 11.52, 11.86, 11.9, 12.13, 11.53, 10.48, 9.66, 7.88, 7.44, 5.95, 2.56, 0.86, 0.0, 0.0, 0.0, 0.0, 0.0, 0.0, 0.0, 0.0, 0.0, 0.0, 0.0, 0.0, 2.43, 0.0, 0.0, 3.6, 6.94, 7.82, 7.62, 7.44, 6.36, 0.0, 0.0, 0.0, 0.95, 0.95, 1.95, 2.01, 2.01, 3.18, 3.0, 2.71, 2.61, 2.19, 1.07, 1.11, 1.01, 0.0, 0.0, 0.0, 0.0, 1.25, 1.09, 3.14, 5.11, 4.93, 6.94, 8.01, 8.3, 9.62, 9.27, 7.47, 7.47, 7.27, 6.7, 6.76, 6.79, 7.03, 5.81, 6.47, 10.17, 11.38, 10.99, 10.12, 10.17, 10.17, 11.58, 11.38, 10.57, 10.27, 9.67, 9.32, 9.67, 9.67, 9.97, 9.27, 8.43, 8.43, 7.45, 7.45, 7.23, 7.36, 6.52, 6.88, 9.73, 12.97, 13.96, 13.46, 12.33, 12.84, 12.08, 11.54, 10.35, 10.35, 9.05, 7.65, 4.79, 1.89, 0.0, 0.0, 0.0, 0.0, 0.0, 1.07, 1.52, 0.0, 0.0, 0.0, 0.0, 2.5, 3.47, 4.24, 6.3, 7.96, 8.32, 7.62, 7.69, 6.57, 6.98, 0.0, 0.0, 0.0, 0.95, 0.98, 1.01, 2.01, 2.15, 2.15, 1.9, 1.77, 2.61, 2.1, 1.02, 0.0, 0.0, 0.0, 0.0, 0.0, 0.0, 0.0, 0.0, 1.47, 4.37, 5.81, 7.93, 9.49, 10.99, 10.3, 7.9, 7.59, 6.64, 6.3, 5.45, 5.98, 6.98, 7.93, 7.13, 6.0, 8.59, 12.79, 11.12, 10.65, 11.2, 11.54, 11.76, 11.7, 11.18, 9.12, 9.71, 9.42, 9.32, 9.16, 8.72, 7.98, 7.59, 7.59, 6.73, 6.4, 6.4, 6.52, 6.43, 8.58, 12.76, 15.2, 14.97, 13.74, 11.92, 11.08, 11.25, 10.12, 9.54, 8.89, 9.0, 7.4, 5.61, 3.69, 0.98, 0.0, 0.0, 0.0, 0.0, 2.28, 3.68, 0.0, 0.0, 0.0, 4.95, 7.32, 7.11, 7.82, 7.93, 8.67, 7.62, 6.76, 6.57, 6.57, 6.76, 0.0, 0.0, 0.0, 0.98, 1.01, 1.01, 1.01, 2.15, 2.09, 1.83, 1.7, 1.84, 1.02, 1.23, 0.0, 0.0, 0.0, 0.0, 0.0, 0.0, 0.0, 0.0, 0.0, 1.56, 4.95, 6.6, 7.82, 9.77, 10.43, 8.59, 7.54, 8.53, 8.85, 7.82, 6.2, 5.99, 5.36, 4.01, 4.9, 7.26, 10.37, 11.88, 12.57, 13.39, 12.36, 10.86, 9.62, 10.02, 10.19, 9.66, 8.38, 9.06, 8.58, 8.14, 7.74, 6.73, 6.52, 5.67, 5.67, 5.48, 5.72, 7.89, 12.65, 14.2, 15.01, 14.61, 12.96, 11.08, 9.8, 8.74, 7.88, 6.42, 5.69, 4.74, 4.94, 3.61, 2.51, 1.05, 0.0, 3.14, 10.8, 6.7, 8.22, 6.45, 2.93, 4.81, 6.88, 8.58, 8.91, 8.67, 8.12, 8.01, 7.19, 7.03, 6.78, 5.81, 6.2, 7.2, 0.0, 0.0, 0.0, 0.0, 1.01, 1.01, 1.01, 1.08, 2.02, 1.77, 0.86, 0.89, 0.0, 1.43, 1.25, 1.25, 0.0, 0.0, 0.0, 0.0, 0.0, 0.0, 0.0, 1.77, 3.04, 3.68, 3.65, 6.0, 8.05, 6.2, 6.2, 9.12, 10.75, 8.66, 6.7, 5.2, 2.95, 2.95, 3.61, 5.95, 9.77, 11.9, 10.99, 9.96, 8.53, 7.72, 8.73, 8.85, 10.19, 10.47, 10.6, 8.41, 8.18, 7.5, 6.88, 6.0, 5.67, 4.93, 4.75, 4.87, 6.92, 11.17, 13.39, 15.15, 14.64, 13.17, 11.77, 9.92, 8.25, 6.47, 4.91, 3.65, 2.37, 2.13, 1.45, 1.6, 0.92, 0.0, 3.36, 16.54, 15.34, 12.14, 11.21, 8.22, 7.85, 8.24, 8.37, 8.67, 8.01, 7.73, 6.87, 6.33, 5.99, 6.4, 6.6, 5.99, 6.42, 8.38, 0.0, 0.0, 0.0, 0.0, 1.01, 1.01, 1.01, 1.01, 1.02, 0.89, 0.89, 0.0, 0.0, 0.0, 0.0, 0.0, 0.0, 1.47, 1.77, 1.83, 1.77, 1.83, 4.38, 4.52, 4.38, 3.53, 3.32, 4.8, 5.48, 4.52, 6.4, 8.28, 9.12, 8.38, 5.4, 3.77, 2.49, 2.04, 4.58, 8.3, 9.17, 9.76, 8.22, 7.06, 6.59, 7.14, 6.92, 6.96, 9.62, 10.52, 10.02, 10.3, 9.39, 7.97, 6.99, 6.78, 6.4, 5.43, 4.47, 5.98, 11.29, 15.02, 16.51, 15.19, 14.51, 13.1, 10.31, 8.97, 7.3, 5.61, 3.18, 1.43, 0.72, 0.72, 0.0, 0.0, 0.0, 3.96, 12.71, 14.31, 15.87, 13.71, 10.79, 9.36, 9.17, 8.85, 8.46, 8.09, 7.28, 6.53, 5.99, 5.4, 5.25, 5.46, 5.81, 5.81, 7.95, 9.48, 0.0, 0.0, 0.0, 0.0, 0.0, 1.01, 1.01, 0.98, 0.99, 0.89, 0.89, 0.0, 0.0, 0.0, 0.0, 0.0, 0.0, 1.08, 1.89, 2.97, 3.92, 4.23, 4.47, 4.24, 3.58, 3.32, 3.25, 3.25, 4.1, 3.93, 3.68, 6.43, 6.45, 4.58, 2.52, 1.44, 2.71, 4.4, 5.64, 7.95, 9.5, 8.83, 7.95, 7.44, 5.95, 6.44, 6.2, 6.7, 8.61, 9.27, 11.38, 12.33, 11.55, 11.16, 11.73, 11.73, 11.84, 9.41, 6.7, 10.55, 15.96, 17.39, 16.79, 15.99, 14.78, 13.59, 12.4, 10.99, 9.55, 7.27, 5.56, 4.24, 3.04, 1.77, 0.0, -6.4, 0.0, 13.41, 14.13, 14.03, 13.58, 13.34, 11.82, 10.51, 9.8, 9.43, 8.94, 7.85, 7.11, 5.6, 5.1, 4.21, 4.65, 4.08, 4.97, 7.44, 9.48, 10.38, 0.0, 0.0, 0.0, 0.0, 0.0, 0.0, 1.01, 0.98, 0.99, 0.92, 0.0, 0.0, 0.0, 0.0, -0.96, 0.0, 0.0, 0.0, 0.92, 1.88, 2.51, 2.44, 2.44, 2.88, 1.48, 2.81, 2.72, 2.33, 2.71, 2.49, 2.49, 3.08, 3.39, 2.04, 0.0, 0.0, 1.56, 3.97, 5.4, 6.9, 8.51, 8.51, 7.51, 6.45, 6.42, 6.11, 8.22, 8.85, 9.62, 9.48, 11.42, 13.05, 14.76, 17.63, 17.75, 17.25, 16.43, 13.4, 10.12, 12.98, 17.23, 17.92, 16.79, 15.78, 15.79, 16.06, 17.51, 17.44, 16.75, 15.37, 13.28, 11.52, 8.85, 6.51, -11.99, -11.16, 12.72, 14.13, 13.77, 12.51, 13.02, 12.65, 12.12, 11.79, 11.38, 10.51, 9.16, 7.93, 6.69, 5.11, 4.24, 3.11, 3.44, 4.24, 6.21, 8.97, 10.38, 10.03, 0.0, 0.0, 0.0, 0.0, 0.0, 0.0, 0.0, 0.0, 0.0, 0.0, 0.0, 0.0, 0.0, 0.0, -1.08, -1.01, -0.92, 0.0, 0.0, 0.0, 0.0, 0.68, 0.65, 0.65, 0.68, 1.25, 1.25, 1.86, 1.72, 1.67, 1.64, 2.51, 1.84, 0.89, 0.85, 0.0, 0.75, 2.94, 4.15, 5.2, 6.94, 7.19, 7.24, 6.24, 6.95, 8.38, 9.67, 10.48, 9.27, 9.62, 9.08, 9.69, 11.8, 14.23, 15.27, 15.68, 15.74, 15.36, 10.31, 12.21, 16.5, 16.85, 15.61, 15.42, 16.85, 17.8, 19.79, 21.01, 21.62, 22.23, 20.38, 17.93, 13.91, 8.94, -11.03, -0.0, 15.27, 14.99, 13.35, 12.68, 12.07, 11.47, 10.3, 9.66, 11.19, 10.59, 8.86, 7.29, 5.81, 4.76, 4.27, 3.44, 4.64, 6.44, 8.37, 9.17, 9.59, 9.96, 0.0, 0.0, 0.0, 0.0, 0.0, 0.0, 0.0, 0.0, 0.0, 0.0, 0.0, 0.0, 0.0, 0.0, -1.04, -1.07, -1.04, -1.01, -0.92, -0.84, 0.0, 0.0, 0.0, 0.0, 0.0, 0.69, 0.69, 0.69, 0.65, 0.6, 0.59, 0.8, 0.0, 0.93, 0.85, 0.78, 0.78, 1.84, 2.95, 4.36, 5.43, 5.43, 6.2, 6.98, 7.68, 8.03, 7.96, 8.93, 8.59, 8.93, 8.93, 9.3, 10.27, 11.28, 10.88, 10.0, 10.77, 11.61, 10.87, 11.41, 14.18, 15.41, 15.36, 15.36, 15.9, 15.36, 16.07, 15.9, 17.75, 16.55, 17.65, 16.5, 12.47, 6.17, 0.0, 12.27, 16.19, 14.85, 14.2, 13.41, 12.72, 10.43, 8.93, 7.38, 8.68, 8.25, 7.08, 5.51, 4.86, 4.0, 4.81, 6.21, 7.26, 8.53, 8.22, 9.26, 9.59, 10.3, 0.0, 0.0, 0.0, 0.0, 0.0, 0.0, 0.0, 0.0, 0.0, 0.0, 0.0, 0.0, 0.0, 0.0, -1.07, -1.1, -1.07, -1.07, -0.98, -0.98, -0.89, -0.89, -0.84, 0.0, 0.0, 0.0, 0.0, 0.0, 0.0, 0.0, 0.0, 0.0, 0.0, 0.0, 0.0, 0.0, 1.14, 1.93, 2.71, 3.11, 4.36, 4.58, 5.0, 6.7, 5.86, 7.33, 7.68, 6.95, 7.27, 7.27, 7.59, 8.55, 8.82, 7.89, 6.79, 6.64, 4.6, 5.48, 9.39, 12.65, 12.27, 12.3, 12.66, 13.28, 14.13, 14.13, 14.28, 12.79, 11.44, 12.77, 13.81, 12.4, 9.11, 4.7, 4.21, 13.23, 15.39, 15.53, 14.0, 12.77, 12.02, 9.92, 7.5, 5.99, 3.78, 4.81, 4.66, 4.13, 3.87, 4.97, 6.85, 8.38, 8.6, 8.57, 8.85, 9.96, 10.63, 10.63, 0.0, 0.0, 0.0, 0.0, 0.0, 0.0, 0.0, 0.0, 0.0, 0.0, 0.0, 0.0, 0.0, 0.0, 0.0, -1.1, -1.07, -1.1, -1.03, -1.0, -0.98, -0.92, -0.92, -0.87, -0.89, -0.89, -0.82, 0.0, 0.0, 0.0, 0.0, 0.0, 0.0, 0.0, 0.0, 0.0, 0.89, 1.92, 2.71, 2.95, 3.25, 4.8, 5.95, 6.14, 5.86, 5.86, 5.86, 5.86, 6.95, 6.01, 6.3, 6.3, 6.95, 5.86, 5.36, 3.32, 2.97, 5.1, 9.17, 10.23, 9.65, 9.86, 10.4, 11.45, 10.68, 10.8, 9.81, 9.5, 9.6, 10.17, 10.81, 8.56, 5.81, 5.64, 9.12, 14.22, 15.45, 14.43, 12.46, 12.19, 11.28, 8.83, 7.6, 5.98, 4.21, 2.71, 2.54, 4.08, 6.4, 8.41, 9.27, 8.22, 8.16, 8.49, 9.2, 10.19, 10.82, 10.82, 0.0, 0.0, 0.0, 0.0, 0.0, 0.0, 0.0, 0.0, 0.0, 0.0, 0.0, 0.0, 0.0, 0.0, -1.04, -1.07, -1.04, -1.1, -2.19, -2.05, -1.0, -0.95, -0.95, -0.92, -1.68, -1.68, -1.73, -1.64, -1.64, -1.68, -1.64, -1.64, -1.63, -1.13, -0.85, 0.0, 0.0, 0.0, 1.45, 1.45, 3.39, 5.46, 5.46, 4.94, 6.14, 6.14, 6.14, 6.95, 6.3, 5.46, 4.66, 4.88, 5.1, 5.1, 4.88, 3.87, 3.45, 4.4, 6.2, 7.68, 7.95, 8.15, 8.24, 8.93, 8.93, 7.96, 8.55, 7.59, 7.78, 9.67, 9.8, 7.05, 4.95, 6.5, 12.04, 13.59, 13.66, 13.4, 12.05, 10.96, 10.35, 9.05, 8.37, 7.99, 7.71, 5.6, 3.18, 8.66, 9.62, 9.62, 8.95, 7.73, 8.46, 9.53, 10.24, 10.81, 10.82, 10.82, 0.0, 0.0, 0.0, 0.0, 0.0, 0.0, 0.0, 0.0, 0.0, 0.0, 0.0, 0.0, 0.0, -1.01, -1.01, -0.98, -2.01, -2.13, -2.19, -2.13, -1.94, -2.88, -1.78, -1.72, -1.72, -2.64, -2.72, -2.57, -3.49, -3.59, -3.41, -3.41, -3.59, -3.2, -1.79, -1.7, -0.85, -1.28, 0.0, 1.69, 4.83, 6.14, 5.86, 6.14, 5.46, 5.7, 5.46, 5.46, 4.88, 5.1, 3.87, 3.87, 4.05, 5.1, 3.87, 3.61, 3.61, 4.6, 5.45, 6.71, 6.71, 7.27, 7.59, 7.9, 8.03, 6.87, 6.01, 6.3, 7.27, 7.44, 9.2, 7.2, 6.6, 8.25, 9.41, 10.17, 10.12, 9.85, 9.85, 8.92, 8.4, 7.52, 8.37, 9.17, 9.22, 8.38, 8.49, 8.67, 9.02, 9.16, 8.72, 8.05, 8.85, 10.55, 11.25, 10.92, 9.83, 9.83, 0.0, 0.0, 0.0, 0.0, 0.0, 0.0, 0.0, 0.0, 0.0, 0.0, 0.0, 0.0, -0.98, -0.98, -1.05, -1.34, -2.02, -2.21, -2.07, -2.01, -2.8, -3.79, -3.8, -3.52, -3.58, -3.59, -3.44, -5.23, -5.13, -4.4, -4.41, -5.36, -5.5, -5.36, -4.76, -3.03, -2.93, -2.53, -0.93, 0.0, 2.83, 3.81, 4.05, 4.6, 5.32, 5.1, 4.88, 3.87, 3.87, 4.05, 3.61, 3.61, 4.05, 4.05, 3.77, 4.8, 4.8, 5.92, 6.97, 6.97, 6.71, 7.27, 7.27, 6.48, 6.95, 6.32, 6.64, 5.89, 5.9, 7.51, 7.92, 7.98, 8.57, 7.49, 5.47, 3.33, 2.59, 3.2, 4.36, 5.65, 4.67, 5.96, 7.84, 8.91, 9.39, 8.85, 7.63, 6.67, 8.05, 7.79, 8.31, 8.87, 9.92, 10.91, 11.95, 11.17, 10.12, 10.12, 0.0, 0.0, 0.0, 0.0, 0.0, 0.0, 0.0, 0.0, 0.0, 0.0, -0.98, -0.98, -0.98, -1.05, -2.09, -1.89, -2.09, -2.02, -1.3, -2.5, -2.72, -4.3, -5.99, -5.23, -5.09, -4.01, -2.96, -3.09, -3.18, -4.03, -4.15, -4.8, -5.65, -5.81, -6.45, -5.55, -4.66, -3.2, -1.22, 0.61, 2.49, 3.45, 3.45, 3.45, 3.49, 3.77, 3.87, 4.05, 4.05, 3.87, 3.45, 3.61, 4.05, 3.77, 4.4, 4.8, 5.86, 6.31, 6.31, 6.97, 6.71, 6.98, 6.24, 6.58, 6.95, 7.27, 6.95, 6.83, 6.15, 6.08, 6.45, 7.05, 6.89, 5.0, 0.79, -2.47, -4.12, -4.01, -0.83, 0.0, 2.3, 4.49, 6.74, 8.43, 8.65, 7.69, 6.9, 6.57, 6.1, 6.77, 7.89, 9.67, 10.22, 11.34, 10.81, 10.61, 9.39, 9.39, 0.0, 0.0, 0.0, 0.0, 0.0, 0.0, 0.0, 0.0, -1.05, -1.05, -1.05, -1.05, -1.05, -2.09, -2.15, -2.01, -2.01, -1.83, -2.54, -2.5, -2.79, -3.37, -4.42, -4.18, -3.92, -3.07, -2.01, -2.07, -2.13, -1.1, -2.19, -2.19, -3.24, -5.23, -6.52, -6.8, -5.67, -3.47, -1.25, 1.14, 2.9, 3.42, 3.45, 3.45, 3.49, 3.53, 3.45, 4.05, 2.82, 2.49, 2.39, 4.05, 4.05, 5.32, 5.2, 5.52, 6.84, 6.71, 6.97, 5.69, 6.24, 6.24, 6.5, 7.73, 7.65, 7.36, 7.27, 7.42, 7.78, 7.19, 7.0, 7.62, 8.57, 4.98, -0.83, -6.99, -10.46, -9.0, -5.49, -0.98, 3.51, 7.4, 8.43, 7.82, 7.32, 6.88, 6.88, 7.58, 8.72, 7.12, 9.02, 10.54, 10.84, 10.18, 10.04, 9.49, 8.61, 8.61, -0.92, -0.92, -0.92, -0.92, -0.92, -0.99, -0.99, -1.02, -1.05, -1.05, -1.05, -2.09, -2.09, -2.09, -2.09, -2.01, -2.98, -2.81, -3.57, -2.72, -2.0, -1.0, -2.07, -1.94, -2.05, -2.11, -2.05, -0.98, -0.98, -1.0, 0.0, 0.0, -1.03, -2.19, -4.54, -6.34, -5.48, -3.14, 0.0, 1.76, 3.39, 3.89, 3.91, 3.45, 3.45, 3.49, 3.53, 2.49, 2.49, 2.49, 2.95, 4.23, 5.54, 5.77, 6.16, 6.97, 6.57, 7.24, 5.92, 5.1, 5.21, 5.29, 6.2, 6.97, 7.65, 7.59, 7.59, 8.35, 8.64, 10.09, 10.43, 13.45, 14.38, 11.05, -11.91, -12.72, -13.92, -12.64, -8.35, 0.0, 5.62, 7.89, 8.33, 7.67, 7.15, 7.54, 8.65, 9.94, 10.68, 8.29, 9.48, 9.8, 10.04, 10.04, 9.22, 8.61, 8.68, 8.68, -0.99, -0.99, -0.92, -0.99, -0.99, -0.99, -0.99, -1.02, -1.05, -2.09, -2.15, -2.15, -2.09, -2.09, -3.09, -2.98, -2.98, -2.89, -3.69, -3.8, -2.97, -1.94, -1.83, -1.78, -0.95, -1.0, -1.02, -1.0, -0.97, -0.92, -0.92, -0.95, 0.0, -0.95, -2.0, -3.9, -2.88, -0.79, 0.64, 2.33, 3.53, 4.05, 4.05, 3.91, 3.42, 3.45, 3.53, 2.49, 2.49, 3.77, 4.4, 5.54, 5.77, 6.16, 5.92, 5.92, 7.54, 7.93, 6.4, 4.34, 4.74, 4.78, 6.2, 7.95, 7.9, 8.69, 8.35, 8.07, 8.82, 9.52, 10.73, 12.7, 13.55, 9.83, 5.95, -8.94, -11.87, -9.73, -1.88, 3.04, 6.16, 6.43, 6.6, 6.09, 7.78, 9.19, 10.68, 11.7, 12.33, 12.33, 9.8, 9.8, 9.66, 9.22, 8.72, 8.06, 7.82, 7.82, -0.99, -0.99, -0.99, -0.99, -0.99, -0.99, -1.96, -2.02, -2.09, -2.09, -2.15, -2.15, -2.15, -3.09, -3.18, -3.18, -3.18, -3.09, -3.8, -3.8, -4.03, -3.9, -2.8, -2.49, -1.72, -1.88, -1.98, -2.04, -2.04, -1.93, -0.95, -0.84, -0.87, -0.87, -1.73, -1.73, -0.87, 0.0, 1.33, 2.84, 3.5, 3.86, 4.05, 3.57, 3.42, 3.45, 3.34, 3.53, 4.08, 4.08, 5.2, 5.2, 5.2, 5.0, 5.0, 6.5, 6.86, 7.54, 7.24, 6.24, 4.94, 5.2, 7.06, 8.22, 7.9, 7.9, 7.9, 9.27, 8.94, 8.58, 6.44, 5.65, 8.48, 13.59, 10.8, 4.47, 0.0, -1.71, 0.0, 1.26, 2.28, 2.72, 3.28, 4.91, 7.98, 10.68, 12.15, 12.12, 12.33, 12.96, 11.25, 9.66, 8.58, 8.1, 7.82, 7.82, 7.82, 7.82, -1.96, -1.96, -1.96, -1.96, -1.9, -1.9, -1.96, -2.02, -2.02, -3.09, -3.18, -3.18, -3.18, -3.18, -3.18, -3.18, -3.09, -3.09, -3.8, -3.92, -4.03, -4.26, -4.01, -3.79, -3.58, -2.64, -2.87, -1.98, -1.88, -1.98, -1.93, -1.78, -1.73, -1.68, -1.68, -1.68, -0.84, 0.0, 2.06, 2.96, 3.5, 4.02, 4.05, 3.39, 3.42, 2.9, 2.9, 2.9, 3.07, 3.61, 3.61, 5.08, 4.54, 4.8, 4.6, 5.1, 5.32, 5.7, 6.76, 6.5, 6.2, 5.2, 6.69, 7.36, 6.59, 7.06, 8.75, 9.42, 9.42, 3.61, 0.97, 1.88, 6.58, 11.44, 12.83, 12.24, 7.37, 1.78, -3.01, -3.98, -2.5, -1.08, 2.01, 7.0, 9.97, 11.17, 11.5, 11.83, 12.45, 11.92, 12.22, 10.32, 7.77, 7.36, 7.34, 7.34, 7.34, 7.34, -1.96, -1.96, -1.9, -1.9, -1.9, -1.9, -1.96, -3.0, -3.09, -3.32, -3.32, -3.42, -3.18, -3.28, -3.28, -3.18, -3.09, -3.09, -3.8, -3.92, -4.03, -4.26, -4.38, -4.01, -3.9, -3.69, -3.58, -2.87, -2.95, -2.95, -1.98, -1.93, -1.83, -1.73, -1.68, -1.78, -0.89, 0.84, 2.16, 2.82, 3.47, 4.02, 3.53, 3.39, 2.87, 2.9, 2.9, 2.9, 2.9, 3.57, 3.57, 3.61, 3.47, 3.82, 4.08, 5.0, 5.32, 5.54, 5.99, 7.02, 6.5, 7.15, 5.63, 5.9, 6.44, 7.65, 9.42, 10.23, 7.14, 3.82, 1.91, 2.64, 4.66, 8.48, 11.99, 13.72, 13.1, 6.57, -1.34, -9.17, -8.43, 0.0, 8.05, 11.2, 11.52, 11.88, 11.06, 11.38, 11.38, 10.6, 10.86, 10.87, 8.16, 7.58, 7.11, 7.13, 6.57, 6.57, -1.9, -1.9, -1.9, -1.9, -2.81, -2.9, -2.9, -3.0, -3.09, -3.32, -3.32, -3.42, -3.42, -3.52, -3.52, -3.42, -3.09, -4.05, -4.05, -3.92, -4.03, -4.15, -4.26, -4.38, -4.01, -3.9, -3.79, -3.9, -3.79, -2.87, -2.87, -2.8, -2.8, -2.87, -2.87, -1.88, 0.0, 2.44, 3.69, 3.98, 3.34, 3.5, 3.53, 3.39, 3.39, 3.39, 3.57, 3.42, 3.42, 3.57, 3.57, 3.03, 2.9, 3.07, 3.53, 4.62, 4.24, 4.4, 4.18, 5.0, 6.4, 6.41, 5.32, 5.72, 7.44, 8.22, 9.88, 7.41, 5.78, 3.82, 2.81, 1.83, 2.87, 5.77, 8.8, 9.96, 9.51, 8.52, 3.24, -8.53, -5.6, 10.99, 12.65, 11.64, 11.17, 11.11, 11.38, 10.95, 10.18, 9.25, 8.68, 9.41, 9.09, 8.06, 7.58, 7.03, 6.48, 6.48, -1.9, -1.9, -1.9, -2.81, -2.81, -2.9, -2.9, -3.0, -3.09, -3.32, -3.32, -3.42, -3.42, -3.52, -3.52, -3.52, -3.09, -3.09, -4.18, -4.3, -4.03, -4.15, -4.26, -4.26, -4.26, -4.01, -3.9, -3.79, -3.79, -3.9, -2.97, -2.97, -3.9, -2.97, -2.97, -0.95, 0.89, 2.32, 3.79, 3.58, 3.9, 3.37, 3.53, 3.89, 4.08, 4.08, 3.57, 3.57, 3.57, 3.57, 3.03, 3.03, 3.03, 3.07, 3.61, 4.64, 3.82, 4.08, 4.36, 5.2, 4.99, 5.2, 4.8, 6.44, 7.9, 9.17, 7.18, 5.2, 3.97, 3.96, 2.81, 0.92, 0.0, 0.89, 2.79, 2.95, 3.73, 6.68, 5.76, 2.24, 4.8, 9.48, 10.63, 11.34, 9.48, 10.12, 10.37, 10.05, 9.12, 8.06, 7.32, 7.4, 9.43, 8.06, 7.6, 7.32, 6.35, 6.35, -1.9, -1.9, -2.81, -2.81, -2.81, -2.9, -2.9, -3.0, -3.32, -3.32, -3.32, -3.42, -3.42, -3.52, -3.52, -3.52, -3.18, -3.09, -3.18, -4.3, -4.3, -4.03, -4.15, -4.26, -4.26, -4.26, -4.15, -4.03, -4.03, -2.88, -2.97, -2.97, -2.97, -2.97, -2.0, 0.0, 1.68, 3.16, 3.79, 3.98, 4.17, 3.37, 4.05, 4.06, 4.75, 4.08, 3.57, 2.9, 3.33, 3.03, 3.33, 3.77, 3.77, 4.17, 4.31, 4.08, 4.1, 4.39, 4.32, 5.2, 4.99, 3.68, 5.0, 6.97, 8.22, 8.61, 7.2, 4.12, 1.07, 0.93, 1.83, 1.89, 0.89, -0.87, -2.45, -2.43, -0.82, 3.28, 6.78, 7.07, 7.22, 6.83, 9.04, 8.53, 9.1, 8.66, 8.1, 7.45, 7.32, 6.66, 5.79, 5.67, 6.52, 7.88, 7.5, 6.54, 6.54, 6.54, -2.81, -2.81, -2.81, -2.81, -2.81, -2.9, -2.9, -3.22, -3.32, -3.32, -3.32, -3.32, -3.42, -3.52, -3.52, -3.52, -3.28, -3.18, -4.18, -4.18, -4.3, -3.92, -4.03, -4.15, -4.15, -4.26, -4.15, -4.03, -4.03, -3.07, -3.07, -3.07, -3.07, -1.94, 0.0, 0.82, 1.68, 3.32, 3.98, 3.98, 4.44, 3.77, 3.53, 3.89, 4.08, 4.75, 4.06, 4.24, 3.92, 4.3, 4.3, 4.26, 4.6, 5.28, 4.46, 4.02, 3.03, 3.33, 3.96, 4.12, 3.06, 4.12, 5.98, 7.65, 7.14, 7.18, 8.15, 6.0, 2.23, 0.0, 0.97, 4.66, 5.65, 3.52, -1.58, -4.25, -3.51, -0.81, 3.19, 7.23, 9.26, 9.54, 10.27, 9.02, 7.78, 7.25, 5.99, 4.31, 3.58, 3.69, 3.58, 3.98, 4.3, 6.47, 6.14, 6.07, 6.54, 6.54, -2.81, -2.81, -2.81, -2.81, -2.81, -2.9, -3.12, -3.22, -3.32, -3.32, -3.32, -3.32, -3.69, -3.79, -3.52, -3.52, -3.52, -4.18, -4.18, -4.18, -4.18, -4.18, -3.92, -4.03, -4.42, -4.42, -4.42, -4.3, -2.98, -2.98, -3.28, -3.07, -2.01, -0.89, 0.0, 1.59, 2.44, 3.22, 3.98, 3.98, 4.58, 4.04, 3.53, 3.39, 3.57, 3.91, 4.51, 5.11, 4.77, 4.26, 3.72, 3.53, 3.11, 3.96, 3.96, 3.23, 3.15, 2.82, 2.88, 3.29, 3.97, 4.99, 6.92, 7.14, 6.45, 6.45, 7.18, 6.87, 5.77, 3.39, 3.7, 5.98, 8.16, 8.18, 3.34, -2.72, -5.42, -2.97, 0.0, 4.66, 8.63, 11.66, 9.78, 8.93, 7.29, 4.87, 3.58, 1.51, 1.42, 1.42, 1.42, 2.12, 2.98, 3.79, 5.46, 5.56, 6.72, 6.72, -2.81, -2.81, -2.81, -2.81, -2.81, -2.9, -3.12, -3.22, -3.32, -3.32, -3.32, -3.58, -3.58, -3.69, -3.52, -3.52, -4.6, -4.6, -4.3, -4.18, -4.18, -4.18, -5.26, -5.26, -5.26, -5.41, -4.42, -4.18, -2.96, -3.22, -3.18, -2.07, -0.95, 0.0, 0.82, 2.37, 3.13, 3.98, 3.98, 3.98, 3.98, 3.64, 3.68, 3.39, 2.87, 2.87, 3.23, 4.24, 3.96, 4.1, 3.59, 3.23, 2.42, 2.52, 2.52, 2.52, 2.66, 2.71, 3.53, 4.4, 5.18, 5.78, 5.75, 5.98, 6.45, 5.43, 5.69, 5.99, 6.63, 5.4, 5.21, 4.8, 5.15, 6.18, 6.93, 0.86, -2.3, -1.04, 0.98, 3.68, 7.98, 9.85, 8.74, 6.73, 5.09, 3.62, 1.48, 0.0, 0.0, 0.0, 0.74, 1.48, 3.1, 4.44, 5.32, 5.41, 6.72, 6.72, -2.81, -2.81, -2.81, -2.81, -2.81, -3.12, -3.12, -3.22, -3.32, -3.32, -3.32, -3.58, -3.58, -3.58, -4.6, -4.6, -4.6, -4.6, -4.6, -4.18, -5.26, -5.26, -5.26, -5.11, -5.26, -5.26, -5.26, -4.18, -3.22, -2.88, -1.02, 0.0, 0.0, 0.87, 1.68, 3.3, 3.3, 3.87, 3.98, 3.98, 3.98, 3.75, 3.35, 2.99, 2.87, 2.99, 3.11, 3.47, 3.23, 3.59, 2.81, 2.62, 2.42, 2.42, 2.42, 3.28, 3.47, 3.53, 4.15, 5.2, 5.77, 5.75, 7.28, 6.2, 5.98, 5.64, 4.54, 4.36, 4.75, 5.8, 5.99, 3.68, 0.86, 0.85, 4.35, 5.1, 2.37, 0.99, 2.56, 3.24, 5.52, 6.49, 5.38, 4.88, 3.52, 2.21, 0.78, 0.0, 0.0, 1.02, 2.81, 3.14, 4.46, 5.35, 5.9, 5.67, 5.56, 5.56, -2.72, -2.72, -2.81, -2.81, -3.02, -3.12, -3.12, -3.22, -3.22, -3.32, -3.58, -3.88, -3.88, -3.58, -4.47, -4.6, -4.6, -4.47, -4.47, -5.26, -5.26, -5.26, -5.62, -5.46, -5.46, -5.62, -4.6, -4.18, -3.18, -2.09, 0.0, 0.0, 0.87, 1.68, 2.5, 3.3, 3.3, 3.13, 3.22, 3.22, 3.98, 4.07, 3.59, 2.87, 2.87, 2.99, 3.11, 2.72, 2.62, 2.62, 2.62, 2.52, 2.33, 2.42, 3.15, 3.92, 4.92, 5.26, 5.54, 6.29, 6.87, 7.02, 7.02, 7.02, 5.95, 6.2, 6.2, 5.0, 4.58, 5.8, 5.8, 4.24, 1.29, 0.0, 0.82, 6.01, 6.4, 3.98, 2.25, 1.6, 2.65, 2.79, 2.79, 2.79, 2.87, 2.35, 2.64, 2.89, 4.18, 4.66, 5.11, 5.67, 5.11, 5.18, 5.02, 5.64, 5.32, 5.32, -2.72, -2.72, -3.02, -3.02, -3.02, -3.02, -3.12, -3.22, -4.21, -3.58, -3.88, -3.88, -3.88, -4.66, -4.81, -4.95, -4.47, -4.47, -5.46, -5.62, -6.56, -5.62, -5.62, -5.62, -5.46, -5.46, -4.6, -3.18, -2.15, -1.01, 0.0, 0.0, 0.79, 1.58, 2.43, 3.3, 3.3, 3.3, 3.3, 3.22, 4.19, 4.07, 3.71, 3.11, 2.87, 2.87, 2.52, 2.62, 2.62, 2.56, 2.56, 2.56, 2.46, 3.03, 3.72, 4.48, 5.26, 6.04, 6.04, 6.04, 6.11, 6.87, 7.02, 6.4, 6.4, 5.77, 5.75, 4.62, 4.81, 5.6, 5.11, 5.31, 2.64, 0.87, 1.71, 5.83, 8.34, 6.46, 3.24, 1.78, 1.83, 2.0, 2.0, 1.94, 2.88, 3.46, 5.46, 6.78, 7.26, 7.25, 6.31, 6.2, 5.45, 4.31, 4.37, 3.62, 4.3, 4.3, -3.81, -3.81, -3.94, -3.94, -3.02, -3.02, -4.08, -4.08, -4.52, -3.47, -3.88, -3.88, -4.66, -4.66, -4.66, -4.81, -5.46, -5.46, -6.37, -6.56, -6.56, -6.56, -5.62, -5.62, -5.62, -5.46, -4.18, -3.18, -1.95, -0.92, 0.0, 0.0, 1.58, 2.28, 2.35, 2.35, 2.43, 3.3, 3.3, 3.3, 4.07, 4.07, 3.83, 3.23, 2.75, 2.52, 2.62, 2.52, 2.1, 2.56, 2.46, 3.15, 3.15, 4.3, 4.8, 5.0, 5.75, 5.52, 5.8, 5.8, 5.8, 5.56, 5.6, 5.75, 5.98, 5.4, 4.8, 4.62, 4.81, 4.47, 5.45, 4.81, 5.37, 4.45, 4.29, 4.88, 6.64, 7.27, 5.99, 5.35, 4.84, 3.18, 2.81, 2.72, 3.68, 5.62, 7.03, 7.49, 7.69, 7.01, 6.28, 5.35, 4.66, 3.95, 2.98, 2.21, 2.93, 2.93, -3.81, -3.81, -3.94, -3.94, -3.94, -4.24, -4.08, -4.08, -4.52, -3.76, -3.76, -5.04, -5.04, -4.66, -4.66, -4.81, -5.46, -6.37, -6.37, -7.0, -7.0, -6.56, -6.56, -5.62, -5.46, -4.18, -3.18, -2.01, -0.92, 0.0, 0.0, 1.72, 1.67, 2.41, 2.41, 2.28, 2.35, 2.43, 3.2, 3.3, 3.3, 4.07, 3.91, 3.32, 3.15, 2.66, 2.52, 2.56, 2.66, 2.82, 3.2, 3.77, 4.48, 4.8, 4.8, 5.75, 5.75, 5.52, 5.32, 5.32, 5.32, 5.1, 5.4, 5.75, 5.98, 5.4, 4.6, 4.62, 4.81, 4.81, 4.64, 5.62, 6.66, 7.97, 6.93, 4.85, 4.06, 4.77, 5.2, 6.68, 7.47, 5.11, 3.68, 4.49, 5.93, 7.01, 7.44, 6.9, 7.01, 6.28, 5.51, 4.58, 3.87, 3.13, 2.44, 1.42, 1.42, 2.11, -3.81, -3.81, -3.81, -3.94, -4.24, -4.24, -4.08, -4.38, -4.52, -4.89, -4.89, -4.89, -4.89, -4.52, -4.66, -5.85, -5.85, -6.8, -5.85, -6.02, -7.0, -6.56, -5.62, -5.62, -4.6, -3.18, -2.01, -0.95, 0.0, 0.87, 1.67, 1.67, 2.49, 2.41, 2.41, 2.41, 2.41, 2.35, 3.2, 3.2, 3.2, 3.3, 3.78, 3.32, 3.03, 2.87, 2.56, 2.66, 3.6, 3.6, 4.08, 4.48, 4.3, 4.6, 4.84, 5.05, 5.05, 4.84, 5.1, 5.32, 5.1, 5.1, 6.4, 4.8, 4.8, 5.0, 5.0, 5.75, 5.57, 5.57, 6.24, 6.3, 6.1, 6.97, 8.83, 7.57, 3.28, 1.58, 2.72, 5.5, 6.01, 5.78, 6.18, 6.79, 7.01, 7.44, 6.48, 6.2, 5.45, 4.66, 3.87, 3.13, 2.25, 1.56, 0.78, 0.71, 0.0, 1.42, -3.81, -3.81, -3.81, -4.24, -5.16, -5.16, -5.16, -4.38, -4.89, -4.89, -4.89, -4.89, -4.89, -5.5, -5.67, -5.67, -5.85, -5.85, -5.85, -5.85, -6.02, -5.62, -5.62, -4.47, -3.18, -1.95, -0.92, 0.0, 0.87, 1.72, 1.67, 2.49, 2.49, 2.41, 2.41, 2.41, 2.41, 2.41, 2.49, 3.1, 3.38, 3.38, 3.07, 2.6, 3.32, 3.28, 3.78, 4.0, 3.87, 4.81, 4.65, 5.1, 4.48, 4.35, 4.35, 4.35, 4.84, 5.1, 5.1, 4.6, 5.1, 5.1, 4.45, 5.0, 5.54, 5.0, 5.29, 5.75, 6.24, 6.48, 6.08, 6.08, 4.98, 7.0, 9.33, 11.2, 8.04, 3.12, 1.98, 3.18, 5.3, 6.74, 7.8, 8.7, 6.9, 6.48, 5.81, 4.52, 3.83, 3.04, 2.37, 1.51, 0.76, 0.0, 0.0, 0.0, 0.0, 0.0, -3.81, -3.81, -4.65, -4.99, -5.16, -5.16, -5.16, -4.38, -4.74, -4.89, -4.89, -4.89, -5.92, -5.92, -6.1, -6.1, -6.29, -5.85, -5.85, -5.85, -5.85, -5.46, -4.6, -4.3, -2.15, -0.98, 0.0, 0.92, 1.72, 1.72, 1.67, 2.41, 2.41, 2.41, 2.41, 2.41, 2.41, 2.41, 2.41, 2.41, 3.28, 3.38, 3.17, 2.14, 1.98, 2.72, 4.04, 5.02, 4.87, 4.98, 4.98, 4.65, 4.32, 4.54, 4.16, 4.16, 4.6, 4.6, 4.4, 5.1, 5.1, 5.39, 6.63, 5.54, 5.54, 6.5, 5.7, 6.16, 6.41, 6.48, 6.08, 6.08, 5.08, 4.98, 6.74, 10.88, 13.39, 11.24, 5.72, 4.65, 5.81, 6.31, 7.94, 8.32, 5.79, 5.02, 4.52, 3.83, 3.2, 2.3, 1.54, 0.76, 0.0, 0.0, -0.82, -0.8, -0.78, -0.78, -4.65, -4.65, -4.65, -4.99, -4.99, -5.16, -5.16, -4.38, -4.74, -4.74, -4.74, -5.92, -5.92, -5.92, -5.92, -6.1, -6.1, -5.85, -5.67, -5.85, -5.85, -5.46, -4.47, -3.18, -1.01, 0.0, 0.92, 0.92, 1.72, 1.72, 1.67, 2.41, 2.41, 2.41, 2.33, 2.41, 2.41, 2.41, 2.41, 2.41, 2.49, 2.49, 2.41, 2.22, 2.14, 2.18, 4.04, 4.13, 3.87, 3.87, 4.1, 4.48, 4.15, 3.65, 3.87, 3.87, 4.4, 4.4, 4.4, 5.1, 5.56, 5.56, 5.15, 5.77, 5.54, 6.5, 6.5, 6.5, 6.15, 6.48, 6.08, 5.2, 4.65, 4.06, 4.89, 7.22, 11.76, 15.57, 14.26, 9.85, 7.6, 6.64, 6.84, 6.67, 5.47, 3.25, 3.17, 3.01, 2.23, 1.54, 0.78, 0.0, 0.0, -0.8, -1.63, -1.58, -1.58, -1.58, -4.65, -4.65, -4.65, -4.99, -4.99, -5.16, -4.24, -4.58, -4.74, -4.74, -5.73, -5.73, -5.92, -5.92, -5.92, -6.1, -6.1, -5.67, -5.67, -5.85, -5.46, -4.47, -3.18, -1.01, 0.0, 0.0, 0.92, 0.92, 1.83, 1.72, 2.49, 2.41, 2.41, 2.33, 2.33, 2.33, 2.41, 2.41, 2.41, 2.41, 2.49, 2.49, 2.55, 2.31, 2.22, 2.31, 3.25, 3.14, 3.6, 3.68, 3.53, 3.53, 3.46, 3.7, 3.7, 3.7, 4.4, 4.4, 4.4, 5.15, 5.6, 5.6, 5.6, 6.16, 6.5, 6.5, 6.76, 6.76, 6.15, 6.24, 5.0, 4.3, 4.17, 4.36, 4.87, 5.96, 9.54, 13.03, 16.7, 15.66, 11.83, 8.07, 6.5, 6.53, 5.07, 2.47, 2.47, 2.33, 1.58, 1.54, 0.78, 0.0, -0.76, -1.54, -1.58, -2.41, -2.41, -2.41, -4.49, -4.49, -4.99, -4.99, -4.99, -4.99, -5.16, -4.58, -5.55, -5.73, -5.73, -5.73, -5.92, -5.92, -5.92, -6.1, -6.1, -5.67, -5.67, -5.3, -4.47, -3.42, -2.15, 0.0, 0.0, 0.98, 0.92, 1.83, 1.83, 2.72, 2.49, 2.49, 1.62, 1.62, 1.57, 2.33, 2.33, 2.41, 2.41, 2.41, 2.49, 2.64, 2.55, 3.14, 2.93, 2.93, 3.23, 3.23, 3.68, 3.39, 3.11, 3.16, 3.16, 3.16, 3.16, 3.7, 3.7, 4.2, 4.45, 4.92, 4.92, 5.34, 5.34, 5.34, 7.56, 6.5, 6.5, 6.59, 6.41, 5.76, 4.72, 5.14, 5.2, 5.11, 6.05, 7.0, 7.65, 9.45, 12.01, 14.94, 16.87, 11.87, 8.45, 6.53, 5.18, 2.98, 1.61, 0.79, 0.74, 0.0, 0.0, -1.53, -1.58, -1.62, -2.41, -2.33, -2.33, -2.33, -4.81, -4.81, -4.81, -4.99, -4.99, -4.99, -5.16, -5.55, -5.55, -5.73, -5.73, -5.73, -5.92, -5.92, -5.92, -6.1, -5.67, -5.67, -5.67, -5.3, -3.32, -2.09, -1.08, 0.0, 0.0, 0.98, 0.92, 1.83, 1.83, 2.72, 2.64, 2.49, 1.62, 1.62, 1.57, 1.57, 1.57, 2.41, 2.55, 2.55, 2.55, 2.64, 3.36, 3.25, 3.04, 3.11, 3.23, 3.23, 3.11, 3.53, 3.25, 3.01, 3.01, 3.16, 3.01, 3.7, 3.93, 3.93, 4.45, 4.92, 4.92, 4.92, 5.09, 5.72, 6.01, 6.5, 6.24, 5.46, 5.9, 5.14, 5.14, 5.63, 6.08, 5.8, 6.05, 6.6, 6.72, 7.57, 9.4, 10.92, 13.74, 15.68, 9.8, 8.68, 7.21, 4.01, 1.61, 0.76, 0.0, 0.0, -1.15, -1.61, -1.61, -2.39, -2.39, -2.45, -2.45, -2.45, -4.81, -4.81, -4.81, -4.99, -5.36, -5.36, -4.99, -5.55, -5.55, -5.73, -5.73, -5.73, -5.73, -5.92, -5.92, -5.92, -5.5, -5.5, -5.5, -4.21, -2.24, -1.05, 0.0, 0.0, 0.0, 0.92, 1.77, 1.83, 2.72, 2.72, 2.72, 1.67, 1.67, 1.62, 1.66, 1.66, 1.66, 1.66, 2.55, 2.55, 2.55, 2.55, 3.36, 3.46, 3.34, 3.11, 3.23, 3.23, 3.23, 2.99, 2.95, 2.58, 2.46, 3.01, 3.01, 3.93, 3.93, 3.75, 4.24, 4.5, 4.96, 4.96, 4.96, 5.36, 6.01, 6.5, 6.58, 6.58, 6.24, 5.9, 5.76, 6.0, 5.72, 5.8, 5.86, 5.91, 5.67, 7.34, 8.8, 10.35, 9.93, 12.41, 13.15, 9.91, 7.47, 4.34, 1.89, 0.76, 0.0, -1.55, -1.55, -1.65, -1.6, -1.54, -1.54, -0.74, -0.74, -0.74, -4.81, -4.81, -4.81, -5.18, -5.36, -5.36, -5.36, -5.16, -5.16, -5.16, -5.73, -5.73, -5.73, -5.92, -5.92, -5.5, -5.5, -5.5, -4.52, -4.52, -3.32, -1.05, 0.0, 0.0, 0.0, 0.92, 1.77, 1.72, 2.64, 2.64, 1.83, 1.83, 1.77, 1.72, 1.66, 1.66, 1.66, 1.66, 2.47, 2.47, 2.47, 3.36, 3.57, 3.46, 3.34, 3.23, 3.34, 3.23, 3.23, 2.99, 2.95, 2.82, 2.58, 2.63, 3.21, 3.21, 3.21, 3.75, 4.0, 4.5, 4.5, 4.5, 4.96, 5.66, 5.66, 7.27, 6.87, 6.87, 6.24, 6.15, 6.0, 6.0, 5.72, 5.6, 5.67, 6.4, 6.47, 7.4, 9.41, 9.48, 9.54, 10.06, 13.78, 12.99, 8.93, 4.31, 2.3, 1.77, 0.0, 0.0, 0.0, 0.0, 0.0, 0.0, 0.0, 0.82, 0.82, 0.82, -4.81, -4.81, -5.18, -5.18, -5.18, -5.36, -5.36, -5.55, -6.0, -6.42, -6.64, -6.64, -6.64, -6.4, -6.4, -5.5, -5.5, -5.5, -4.52, -3.47, -2.18, -1.05, 0.0, 0.0, 0.98, 1.83, 1.77, 1.72, 2.55, 1.72, 1.72, 1.77, 1.77, 1.72, 1.66, 1.66, 1.66, 2.47, 2.47, 2.63, 2.63, 2.63, 2.72, 2.63, 3.34, 3.23, 3.34, 3.34, 3.11, 2.99, 2.95, 2.82, 2.89, 2.76, 2.63, 3.21, 3.21, 4.0, 3.8, 4.5, 4.5, 4.28, 4.28, 5.0, 5.68, 6.48, 6.77, 7.13, 6.59, 6.15, 6.41, 5.52, 5.86, 5.72, 6.43, 6.52, 6.6, 7.67, 8.84, 9.63, 9.69, 10.27, 11.58, 12.79, 10.03, 5.13, 3.09, 2.1, 2.19, 1.54, 0.74, 0.0, 0.0, 0.85, 1.69, 2.6, 2.6, 2.6, -5.18, -4.99, -5.18, -5.18, -5.18, -5.36, -6.21, -6.21, -6.42, -6.42, -6.64, -6.64, -6.85, -6.4, -6.2, -5.33, -5.33, -4.38, -4.38, -3.22, -2.18, 0.0, 0.0, 0.0, 0.98, 1.95, 1.89, 1.77, 1.72, 1.66, 1.66, 1.66, 1.72, 1.72, 1.66, 1.61, 1.61, 2.54, 2.54, 2.54, 2.63, 2.63, 2.63, 2.63, 2.54, 2.54, 3.34, 3.23, 3.11, 3.19, 2.95, 2.82, 2.89, 2.63, 2.5, 2.5, 3.27, 3.27, 3.8, 3.8, 3.8, 4.28, 4.56, 4.73, 5.35, 6.64, 6.48, 7.59, 7.13, 7.42, 6.41, 6.41, 5.14, 5.86, 6.56, 6.65, 7.36, 7.82, 8.77, 8.9, 8.8, 8.65, 9.26, 9.8, 10.26, 8.8, 6.19, 2.95, 2.88, 2.28, 1.54, 1.58, 1.63, 2.6, 3.39, 4.3, 4.3, 4.3, -4.99, -5.4, -5.4, -5.6, -5.18, -5.99, -6.21, -6.21, -6.42, -6.42, -6.64, -6.64, -6.85, -6.85, -6.64, -5.55, -5.16, -4.38, -3.47, -3.22, -2.18, -1.02, 0.0, 0.98, 0.98, 1.95, 1.89, 1.89, 1.72, 1.72, 1.66, 1.66, 1.66, 1.66, 1.61, 1.61, 1.71, 2.54, 2.54, 2.54, 2.54, 2.54, 2.63, 2.63, 2.54, 2.54, 2.62, 3.44, 3.32, 3.19, 2.95, 2.89, 2.89, 2.76, 2.63, 2.69, 2.69, 3.27, 3.09, 3.27, 3.8, 3.6, 4.32, 4.61, 5.35, 5.06, 6.32, 6.95, 7.27, 7.13, 6.98, 7.26, 6.41, 5.29, 5.86, 6.56, 7.49, 7.59, 7.0, 7.23, 8.04, 8.8, 8.51, 7.35, 9.13, 9.4, 5.37, 2.44, 1.42, 2.19, 2.19, 3.29, 3.67, 4.8, 5.0, 4.87, 4.87, 4.87, -5.4, -5.4, -6.21, -6.21, -6.44, -5.99, -5.99, -6.96, -6.96, -7.2, -7.44, -7.44, -6.85, -6.64, -6.42, -5.55, -5.73, -4.38, -3.47, -3.22, -2.18, -1.02, 0.0, 0.98, 0.98, 1.89, 1.89, 1.83, 1.83, 1.72, 1.66, 1.66, 1.66, 1.66, 1.61, 1.71, 2.54, 2.45, 2.45, 2.54, 2.54, 2.54, 2.54, 2.54, 2.54, 2.72, 2.62, 2.62, 2.53, 2.44, 2.25, 3.02, 3.02, 2.76, 2.17, 2.69, 2.54, 2.54, 2.54, 3.09, 3.33, 3.85, 3.85, 4.36, 4.67, 4.71, 6.01, 6.79, 7.4, 7.27, 7.13, 6.98, 6.98, 7.13, 6.15, 7.1, 7.63, 6.94, 6.09, 6.45, 7.23, 8.04, 8.38, 6.94, 7.49, 7.8, 4.23, 1.96, 1.77, 2.82, 4.4, 5.2, 5.86, 5.86, 5.72, 5.6, 5.6, 5.6, -6.21, -6.21, -6.21, -6.21, -6.44, -6.72, -6.72, -6.96, -6.96, -7.2, -7.44, -7.44, -6.64, -6.64, -6.42, -5.55, -5.33, -4.38, -3.12, -2.18, -1.02, -1.02, 0.0, 0.98, 1.95, 1.89, 1.89, 1.83, 1.83, 1.66, 1.66, 1.66, 1.66, 1.66, 1.71, 2.45, 2.45, 2.45, 2.45, 2.45, 2.54, 2.54, 2.54, 2.54, 2.72, 2.72, 2.62, 2.62, 2.53, 2.44, 2.41, 2.31, 2.21, 2.11, 2.17, 2.06, 2.06, 2.54, 2.54, 3.33, 3.14, 3.14, 3.64, 3.91, 4.39, 4.71, 4.74, 4.41, 5.82, 6.48, 6.04, 6.31, 6.7, 6.98, 6.98, 6.84, 6.79, 6.73, 7.15, 6.62, 7.2, 8.0, 8.31, 9.54, 6.75, 4.88, 3.33, 3.36, 3.96, 5.2, 5.54, 6.53, 6.56, 5.6, 5.6, 4.81, 4.81, 4.81, -6.21, -6.21, -6.21, -6.92, -6.92, -7.18, -6.72, -6.96, -6.96, -7.2, -7.2, -7.2, -6.42, -6.42, -6.21, -5.55, -5.33, -4.38, -3.12, -2.18, -1.02, -1.02, 0.0, 0.95, 1.89, 1.89, 1.83, 1.83, 1.83, 1.77, 1.71, 1.77, 1.66, 1.66, 1.71, 2.45, 2.45, 2.45, 2.37, 2.45, 2.45, 2.45, 2.54, 2.72, 2.72, 2.62, 2.62, 2.62, 2.81, 2.61, 2.41, 2.31, 2.39, 2.28, 2.17, 2.06, 2.06, 1.95, 2.75, 2.6, 2.6, 3.14, 3.14, 3.2, 3.97, 4.39, 4.71, 4.43, 5.69, 5.36, 5.63, 6.04, 6.31, 6.15, 6.41, 5.75, 6.08, 6.65, 6.94, 7.82, 8.05, 7.95, 10.17, 11.62, 9.89, 3.23, 6.34, 5.6, 5.0, 5.41, 5.77, 5.89, 5.48, 4.81, 4.81, 4.55, 4.55, 4.55, -6.67, -6.67, -6.92, -6.92, -6.92, -6.92, -7.18, -7.43, -7.18, -7.43, -7.43, -7.43, -6.96, -6.21, -6.21, -5.55, -4.38, -3.36, -2.11, -1.96, -1.02, 0.0, 0.0, 2.02, 2.02, 1.89, 1.83, 1.83, 1.77, 1.77, 1.71, 1.77, 1.77, 1.77, 1.71, 2.45, 2.45, 2.45, 2.37, 2.37, 2.45, 2.45, 2.62, 2.62, 2.62, 2.62, 2.81, 2.81, 2.81, 2.61, 2.41, 2.49, 1.62, 1.54, 2.17, 2.06, 2.06, 2.12, 2.6, 2.6, 2.6, 2.44, 2.44, 3.2, 3.97, 4.12, 4.71, 4.74, 4.43, 5.82, 5.63, 5.63, 6.04, 6.59, 6.41, 5.52, 4.8, 5.93, 6.88, 6.94, 7.82, 8.54, 9.5, 11.02, 10.91, 6.17, 9.61, 6.96, 5.0, 4.4, 4.4, 4.39, 4.31, 4.1, 3.96, 4.1, 4.1, 4.1, -7.14, -7.14, -6.67, -6.92, -6.67, -7.54, -7.54, -7.82, -7.18, -7.18, -7.43, -7.43, -6.96, -6.21, -5.36, -5.16, -4.38, -3.12, -2.11, -0.99, -0.99, 0.0, 1.02, 2.02, 2.02, 1.83, 1.83, 1.77, 1.77, 1.77, 1.71, 1.77, 1.77, 1.71, 1.71, 2.45, 2.45, 2.37, 2.37, 2.37, 2.62, 2.62, 2.62, 2.62, 2.62, 2.81, 2.81, 2.81, 2.81, 2.61, 1.76, 1.69, 1.62, 1.54, 1.54, 2.17, 2.06, 2.23, 2.12, 2.0, 2.0, 1.88, 2.44, 2.66, 3.47, 3.72, 4.42, 4.74, 4.43, 5.53, 5.82, 5.63, 6.48, 6.31, 6.15, 5.52, 4.8, 5.2, 5.93, 6.88, 6.8, 6.9, 7.49, 8.31, 10.07, 12.0, 9.42, 7.21, 5.1, 4.32, 3.76, 3.68, 4.39, 4.1, 3.96, 3.96, 3.96, 3.96, -7.14, -7.14, -7.14, -7.26, -7.26, -7.54, -7.54, -7.54, -7.54, -7.82, -7.18, -7.43, -6.21, -6.21, -5.36, -4.24, -3.25, -3.12, -2.11, -0.99, 0.0, 1.02, 1.02, 2.02, 1.96, 1.83, 1.83, 1.77, 1.77, 1.71, 1.71, 1.77, 1.77, 1.71, 1.65, 2.45, 2.37, 2.37, 2.37, 2.53, 2.62, 2.62, 2.62, 2.53, 2.71, 2.71, 2.81, 1.9, 1.9, 1.77, 1.76, 1.69, 1.62, 1.62, 1.54, 1.47, 2.06, 2.12, 2.12, 1.84, 1.88, 1.88, 1.88, 2.82, 3.4, 3.97, 4.12, 4.43, 4.12, 5.69, 5.53, 5.82, 5.63, 5.46, 5.29, 5.52, 5.52, 4.44, 5.2, 5.86, 5.91, 5.23, 5.06, 5.83, 8.21, 11.28, 12.24, 7.21, 5.02, 4.24, 3.53, 3.68, 4.24, 4.1, 3.96, 3.96, 3.96, 3.96, -6.86, -6.86, -7.42, -7.72, -7.72, -7.72, -7.72, -8.02, -7.54, -7.18, -7.18, -6.67, -6.21, -5.36, -4.1, -4.24, -3.12, -2.04, -0.99, 0.0, 0.0, 1.02, 2.02, 2.02, 1.96, 1.83, 1.77, 1.77, 1.77, 1.71, 1.71, 1.77, 1.77, 1.71, 1.65, 2.45, 2.37, 2.37, 2.37, 2.53, 2.53, 2.53, 2.53, 2.53, 1.84, 1.84, 1.84, 1.84, 1.84, 1.7, 0.89, 0.85, 0.85, 0.82, 1.54, 1.54, 1.47, 1.32, 1.32, 1.25, 1.36, 1.36, 2.0, 2.82, 3.4, 3.97, 4.12, 4.42, 4.71, 4.71, 4.71, 4.94, 4.74, 4.74, 4.78, 5.29, 4.44, 4.62, 3.42, 4.98, 5.18, 4.31, 4.35, 5.11, 6.98, 9.86, 12.08, 8.27, 6.05, 5.02, 4.32, 4.32, 4.24, 4.81, 4.81, 4.81, 4.81, 4.81, -7.42, -7.42, -7.42, -7.42, -7.42, -7.72, -7.72, -8.02, -7.54, -7.18, -7.18, -5.99, -5.36, -4.99, -4.1, -3.25, -2.04, -1.03, 0.0, 0.0, 0.99, 1.96, 2.02, 2.02, 1.96, 1.9, 1.77, 1.77, 1.71, 1.71, 1.71, 1.77, 1.77, 1.71, 1.65, 1.65, 2.37, 2.37, 2.37, 2.37, 2.53, 2.53, 1.71, 1.71, 1.77, 1.77, 1.77, 0.93, 0.89, 0.82, 0.89, 0.85, 0.85, 0.85, 1.62, 1.54, 1.47, 1.4, 1.4, 0.67, 1.36, 1.36, 2.0, 2.99, 3.6, 4.22, 4.39, 4.39, 4.71, 5.0, 4.56, 5.2, 4.94, 5.46, 3.63, 3.65, 3.67, 3.53, 3.68, 3.44, 4.27, 4.31, 4.45, 5.88, 7.46, 9.62, 11.78, 9.2, 6.05, 5.55, 5.86, 5.1, 5.29, 5.2, 5.11, 5.11, 5.11, 5.11, -7.42, -7.42, -7.42, -7.42, -7.42, -7.72, -7.72, -8.02, -6.92, -7.18, -6.44, -5.99, -5.36, -4.1, -3.14, -2.04, -2.04, 0.0, 0.0, 0.99, 0.99, 1.96, 1.96, 1.96, 1.96, 1.77, 1.77, 1.77, 1.71, 1.71, 1.71, 1.77, 1.71, 1.55, 1.65, 1.65, 2.37, 2.37, 2.28, 2.28, 1.71, 1.71, 1.64, 1.64, 1.58, 0.86, 0.86, 0.86, 0.86, 0.82, 0.0, 0.85, 0.85, 0.85, 0.82, 0.82, 0.78, 0.74, 0.71, 0.73, 1.44, 1.44, 2.12, 2.99, 3.6, 3.91, 3.97, 4.22, 4.22, 4.56, 4.56, 3.97, 3.72, 3.7, 3.63, 2.83, 3.51, 3.68, 3.82, 3.44, 3.46, 4.41, 5.25, 5.96, 7.42, 9.45, 11.09, 11.02, 8.27, 7.54, 7.54, 6.6, 6.31, 5.52, 5.11, 4.87, 4.87, 4.87, -7.42, -7.42, -7.42, -7.42, -7.42, -7.72, -7.72, -8.02, -6.92, -7.18, -6.44, -5.99, -5.36, -4.1, -3.14, -2.04, -2.04, 0.0, 0.0, 0.99, 0.99, 1.96, 1.96, 1.96, 1.96, 1.77, 1.77, 1.77, 1.71, 1.71, 1.71, 1.77, 1.71, 1.55, 1.65, 1.65, 2.37, 2.37, 2.28, 2.28, 1.71, 1.71, 1.64, 1.64, 1.58, 0.86, 0.86, 0.86, 0.86, 0.82, 0.0, 0.85, 0.85, 0.85, 0.82, 0.82, 0.78, 0.74, 0.71, 0.73, 1.44, 1.44, 2.12, 2.99, 3.6, 3.91, 3.97, 4.22, 4.22, 4.56, 4.56, 3.97, 3.72, 3.7, 3.63, 2.83, 3.67, 3.68, 3.82, 3.44, 3.46, 4.29, 5.12, 5.56, 7.33, 8.68, 11.2, 12.19, 10.42, 8.65, 7.76, 7.98, 7.76, 6.05, 5.55, 4.87, 4.87, 4.87]}]